| time (UTC) | temp C | wind direction | speed KPH | gust KPH | rain 1hr cm | rain 24hr cm | rain mn cm | humidity % | barometer mb |
| 20260505093103 | 29 | 313 | 8.0 | 11.3 | 0.00 | 0.00 | 0.00 | 60 | 1013.5 |
| 20260505093024 | 29 | 318 | 8.0 | 11.3 | 0.00 | 0.00 | 0.00 | 60 | 1013.4 |
| 20260505092903 | 29 | 323 | 8.0 | 11.3 | 0.00 | 0.00 | 0.00 | 60 | 1013.5 |
| 20260505092803 | 29 | 326 | 8.0 | 12.9 | 0.00 | 0.00 | 0.00 | 60 | 1013.4 |
| 20260505092703 | 29 | 331 | 8.0 | 12.9 | 0.00 | 0.00 | 0.00 | 60 | 1013.4 |
| 20260505092624 | 29 | 332 | 8.0 | 12.9 | 0.00 | 0.00 | 0.00 | 60 | 1013.5 |
| 20260505092503 | 29 | 338 | 9.7 | 14.5 | 0.00 | 0.00 | 0.00 | 60 | 1013.6 |
| 20260505092403 | 29 | 341 | 9.7 | 14.5 | 0.00 | 0.00 | 0.00 | 60 | 1013.4 |
| 20260505092324 | 29 | 344 | 9.7 | 14.5 | 0.00 | 0.00 | 0.00 | 60 | 1013.5 |
| 20260505092203 | 29 | 352 | 9.7 | 14.5 | 0.00 | 0.00 | 0.00 | 60 | 1013.4 |
| 20260505092125 | 29 | 354 | 9.7 | 14.5 | 0.00 | 0.00 | 0.00 | 60 | 1013.6 |
| 20260505092003 | 29 | 360 | 9.7 | 14.5 | 0.00 | 0.00 | 0.00 | 60 | 1013.4 |
| 20260505091903 | 29 | 3 | 11.3 | 14.5 | 0.00 | 0.00 | 0.00 | 60 | 1013.5 |
| 20260505091804 | 29 | 4 | 11.3 | 14.5 | 0.00 | 0.00 | 0.00 | 60 | 1013.5 |
| 20260505091724 | 29 | 2 | 11.3 | 14.5 | 0.00 | 0.00 | 0.00 | 60 | 1013.4 |
| 20260505091603 | 29 | 360 | 11.3 | 14.5 | 0.00 | 0.00 | 0.00 | 60 | 1013.4 |
| 20260505091503 | 29 | 358 | 11.3 | 14.5 | 0.00 | 0.00 | 0.00 | 60 | 1013.4 |
| 20260505091404 | 29 | 354 | 11.3 | 14.5 | 0.00 | 0.00 | 0.00 | 60 | 1013.6 |
| 20260505091303 | 29 | 349 | 11.3 | 14.5 | 0.00 | 0.00 | 0.00 | 60 | 1013.4 |
| 20260505091204 | 29 | 344 | 11.3 | 14.5 | 0.00 | 0.00 | 0.00 | 60 | 1013.5 |
| 20260505091103 | 29 | 342 | 11.3 | 14.5 | 0.00 | 0.00 | 0.00 | 60 | 1013.7 |
| 20260505091003 | 29 | 339 | 11.3 | 14.5 | 0.00 | 0.00 | 0.00 | 60 | 1013.5 |
| 20260505090903 | 29 | 337 | 11.3 | 14.5 | 0.00 | 0.00 | 0.00 | 60 | 1013.5 |
| 20260505090824 | 29 | 337 | 11.3 | 14.5 | 0.00 | 0.00 | 0.00 | 60 | 1013.7 |
| 20260505090703 | 29 | 339 | 9.7 | 14.5 | 0.00 | 0.00 | 0.00 | 60 | 1013.6 |
| 20260505090603 | 29 | 341 | 9.7 | 12.9 | 0.00 | 0.00 | 0.00 | 60 | 1013.8 |
| 20260505090503 | 29 | 341 | 9.7 | 12.9 | 0.00 | 0.00 | 0.00 | 60 | 1013.8 |
| 20260505090403 | 29 | 344 | 9.7 | 12.9 | 0.00 | 0.00 | 0.00 | 60 | 1013.7 |
| 20260505090303 | 29 | 349 | 9.7 | 12.9 | 0.00 | 0.00 | 0.00 | 60 | 1013.6 |
| 20260505090203 | 29 | 351 | 8.0 | 12.9 | 0.00 | 0.00 | 0.00 | 60 | 1013.6 |
| 20260505090004 | 29 | 355 | 9.7 | 16.1 | 0.00 | 0.00 | 0.00 | 60 | 1013.7 |
| 20260505085903 | 29 | 358 | 9.7 | 16.1 | 0.00 | 0.00 | 0.00 | 60 | 1013.8 |
| 20260505085803 | 29 | 359 | 9.7 | 16.1 | 0.00 | 0.00 | 0.00 | 60 | 1013.8 |
| 20260505085703 | 29 | 356 | 9.7 | 16.1 | 0.00 | 0.00 | 0.00 | 60 | 1013.8 |
| 20260505085605 | 29 | 355 | 11.3 | 16.1 | 0.00 | 0.00 | 0.00 | 60 | 1013.8 |
| 20260505085525 | 29 | 353 | 9.7 | 16.1 | 0.00 | 0.00 | 0.00 | 60 | 1013.9 |
| 20260505085403 | 29 | 356 | 11.3 | 16.1 | 0.00 | 0.00 | 0.00 | 60 | 1013.7 |
| 20260505085304 | 29 | 356 | 11.3 | 17.7 | 0.00 | 0.00 | 0.00 | 60 | 1013.8 |
| 20260505085204 | 29 | 356 | 11.3 | 17.7 | 0.00 | 0.00 | 0.00 | 60 | 1013.8 |
| 20260505085103 | 29 | 353 | 11.3 | 17.7 | 0.00 | 0.00 | 0.00 | 60 | 1013.7 |
| 20260505085003 | 29 | 355 | 11.3 | 17.7 | 0.00 | 0.00 | 0.00 | 60 | 1014.0 |
| 20260505084924 | 29 | 357 | 11.3 | 17.7 | 0.00 | 0.00 | 0.00 | 60 | 1013.8 |
| 20260505084803 | 29 | 352 | 11.3 | 20.9 | 0.00 | 0.00 | 0.00 | 60 | 1013.9 |
| 20260505084703 | 29 | 352 | 12.9 | 20.9 | 0.00 | 0.00 | 0.00 | 60 | 1013.9 |
| 20260505084624 | 29 | 355 | 12.9 | 20.9 | 0.00 | 0.00 | 0.00 | 60 | 1013.9 |
| 20260505084503 | 29 | 356 | 12.9 | 20.9 | 0.00 | 0.00 | 0.00 | 60 | 1014.0 |
| 20260505084403 | 29 | 354 | 12.9 | 20.9 | 0.00 | 0.00 | 0.00 | 60 | 1014.0 |
| 20260505084303 | 29 | 347 | 12.9 | 20.9 | 0.00 | 0.00 | 0.00 | 60 | 1014.1 |
| 20260505084204 | 29 | 344 | 12.9 | 20.9 | 0.00 | 0.00 | 0.00 | 60 | 1014.0 |
| 20260505084103 | 29 | 350 | 14.5 | 20.9 | 0.00 | 0.00 | 0.00 | 60 | 1014.1 |
| 20260505084003 | 29 | 343 | 14.5 | 20.9 | 0.00 | 0.00 | 0.00 | 60 | 1014.0 |
| 20260505083904 | 29 | 339 | 14.5 | 20.9 | 0.00 | 0.00 | 0.00 | 60 | 1014.1 |
| 20260505083803 | 29 | 341 | 14.5 | 17.7 | 0.00 | 0.00 | 0.00 | 60 | 1014.2 |
| 20260505083703 | 29 | 345 | 12.9 | 17.7 | 0.00 | 0.00 | 0.00 | 60 | 1014.2 |
| 20260505083624 | 29 | 343 | 12.9 | 17.7 | 0.00 | 0.00 | 0.00 | 60 | 1014.2 |
| 20260505083503 | 29 | 342 | 12.9 | 17.7 | 0.00 | 0.00 | 0.00 | 60 | 1014.2 |
| 20260505083403 | 29 | 341 | 12.9 | 17.7 | 0.00 | 0.00 | 0.00 | 60 | 1014.1 |
| 20260505083303 | 29 | 343 | 14.5 | 17.7 | 0.00 | 0.00 | 0.00 | 60 | 1014.1 |
| 20260505083203 | 29 | 347 | 12.9 | 17.7 | 0.00 | 0.00 | 0.00 | 60 | 1014.1 |
| 20260505083103 | 29 | 350 | 14.5 | 17.7 | 0.00 | 0.00 | 0.00 | 60 | 1014.0 |
| 20260505083004 | 29 | 355 | 12.9 | 17.7 | 0.00 | 0.00 | 0.00 | 60 | 1014.1 |
| 20260505082904 | 29 | 357 | 12.9 | 17.7 | 0.00 | 0.00 | 0.00 | 60 | 1014.4 |
| 20260505082803 | 29 | 355 | 12.9 | 17.7 | 0.00 | 0.00 | 0.00 | 60 | 1014.5 |
| 20260505082703 | 29 | 354 | 12.9 | 17.7 | 0.00 | 0.00 | 0.00 | 60 | 1014.4 |
| 20260505082603 | 29 | 351 | 14.5 | 17.7 | 0.00 | 0.00 | 0.00 | 60 | 1014.2 |
| 20260505082503 | 29 | 353 | 12.9 | 17.7 | 0.00 | 0.00 | 0.00 | 60 | 1014.1 |
| 20260505082403 | 29 | 1 | 12.9 | 17.7 | 0.00 | 0.00 | 0.00 | 60 | 1014.2 |
| 20260505082305 | 29 | 5 | 12.9 | 17.7 | 0.00 | 0.00 | 0.00 | 60 | 1014.4 |
| 20260505082203 | 29 | 9 | 12.9 | 16.1 | 0.00 | 0.00 | 0.00 | 60 | 1014.4 |
| 20260505082103 | 29 | 9 | 12.9 | 16.1 | 0.00 | 0.00 | 0.00 | 60 | 1014.5 |
| 20260505082003 | 29 | 5 | 11.3 | 16.1 | 0.00 | 0.00 | 0.00 | 60 | 1014.5 |
| 20260505081903 | 29 | 9 | 11.3 | 16.1 | 0.00 | 0.00 | 0.00 | 60 | 1014.5 |
| 20260505081803 | 29 | 8 | 11.3 | 16.1 | 0.00 | 0.00 | 0.00 | 60 | 1014.4 |
| 20260505081724 | 29 | 10 | 11.3 | 16.1 | 0.00 | 0.00 | 0.00 | 60 | 1014.6 |
| 20260505081603 | 29 | 10 | 11.3 | 14.5 | 0.00 | 0.00 | 0.00 | 60 | 1014.5 |
| 20260505081503 | 29 | 7 | 9.7 | 14.5 | 0.00 | 0.00 | 0.00 | 60 | 1014.6 |
| 20260505081403 | 29 | 2 | 9.7 | 14.5 | 0.00 | 0.00 | 0.00 | 60 | 1014.8 |
| 20260505081303 | 29 | 359 | 9.7 | 14.5 | 0.00 | 0.00 | 0.00 | 60 | 1014.5 |
| 20260505081203 | 29 | 351 | 9.7 | 14.5 | 0.00 | 0.00 | 0.00 | 60 | 1014.6 |
| 20260505081103 | 29 | 348 | 9.7 | 14.5 | 0.00 | 0.00 | 0.00 | 60 | 1014.7 |
| 20260505081003 | 29 | 347 | 9.7 | 14.5 | 0.00 | 0.00 | 0.00 | 60 | 1014.7 |
| 20260505080904 | 29 | 343 | 9.7 | 14.5 | 0.00 | 0.00 | 0.00 | 60 | 1014.7 |
| 20260505080824 | 29 | 340 | 9.7 | 14.5 | 0.00 | 0.00 | 0.00 | 60 | 1014.7 |
| 20260505080725 | 29 | 338 | 9.7 | 14.5 | 0.00 | 0.00 | 0.00 | 60 | 1014.9 |
| 20260505080603 | 29 | 338 | 9.7 | 12.9 | 0.00 | 0.00 | 0.00 | 60 | 1014.7 |
| 20260505080503 | 29 | 338 | 9.7 | 12.9 | 0.00 | 0.00 | 0.00 | 60 | 1014.8 |
| 20260505080403 | 29 | 342 | 9.7 | 12.9 | 0.00 | 0.00 | 0.00 | 60 | 1015.0 |
| 20260505080303 | 29 | 343 | 9.7 | 12.9 | 0.00 | 0.00 | 0.00 | 60 | 1015.1 |
| 20260505080203 | 29 | 345 | 9.7 | 12.9 | 0.00 | 0.00 | 0.00 | 60 | 1014.9 |
| 20260505080124 | 29 | 348 | 9.7 | 12.9 | 0.00 | 0.00 | 0.00 | 60 | 1014.9 |
| 20260505080003 | 29 | 350 | 8.0 | 11.3 | 0.00 | 0.00 | 0.00 | 60 | 1014.8 |
| 20260505075904 | 29 | 352 | 8.0 | 11.3 | 0.00 | 0.00 | 0.00 | 60 | 1014.9 |
| 20260505075803 | 29 | 356 | 8.0 | 11.3 | 0.00 | 0.00 | 0.00 | 60 | 1014.9 |
| 20260505075724 | 29 | 357 | 8.0 | 11.3 | 0.00 | 0.00 | 0.00 | 60 | 1015.0 |
| 20260505075603 | 29 | 358 | 8.0 | 11.3 | 0.00 | 0.00 | 0.00 | 60 | 1014.9 |
| 20260505075504 | 29 | 356 | 8.0 | 14.5 | 0.00 | 0.00 | 0.00 | 60 | 1015.0 |
| 20260505075403 | 29 | 354 | 8.0 | 14.5 | 0.00 | 0.00 | 0.00 | 60 | 1014.9 |
| 20260505075304 | 29 | 350 | 9.7 | 14.5 | 0.00 | 0.00 | 0.00 | 60 | 1015.0 |
| 20260505075204 | 29 | 348 | 9.7 | 14.5 | 0.00 | 0.00 | 0.00 | 60 | 1015.0 |
| 20260505075103 | 29 | 343 | 9.7 | 14.5 | 0.00 | 0.00 | 0.00 | 60 | 1014.9 |
| 20260505075004 | 29 | 339 | 9.7 | 14.5 | 0.00 | 0.00 | 0.00 | 60 | 1015.0 |
| 20260505074904 | 29 | 340 | 9.7 | 14.5 | 0.00 | 0.00 | 0.00 | 60 | 1015.0 |
| 20260505074803 | 29 | 339 | 11.3 | 14.5 | 0.00 | 0.00 | 0.00 | 60 | 1015.0 |
| 20260505074724 | 29 | 338 | 11.3 | 14.5 | 0.00 | 0.00 | 0.00 | 60 | 1015.2 |
| 20260505074603 | 29 | 336 | 11.3 | 14.5 | 0.00 | 0.00 | 0.00 | 60 | 1015.0 |
| 20260505074504 | 29 | 335 | 11.3 | 14.5 | 0.00 | 0.00 | 0.00 | 60 | 1015.1 |
| 20260505074403 | 29 | 335 | 11.3 | 16.1 | 0.00 | 0.00 | 0.00 | 60 | 1015.2 |
| 20260505074303 | 29 | 333 | 11.3 | 16.1 | 0.00 | 0.00 | 0.00 | 60 | 1015.2 |
| 20260505074204 | 29 | 331 | 11.3 | 16.1 | 0.00 | 0.00 | 0.00 | 60 | 1015.1 |
| 20260505074104 | 29 | 333 | 11.3 | 16.1 | 0.00 | 0.00 | 0.00 | 60 | 1015.3 |
| 20260505074004 | 29 | 338 | 11.3 | 16.1 | 0.00 | 0.00 | 0.00 | 60 | 1015.3 |
| 20260505073924 | 29 | 337 | 11.3 | 16.1 | 0.00 | 0.00 | 0.00 | 60 | 1015.2 |
| 20260505073803 | 29 | 336 | 11.3 | 16.1 | 0.00 | 0.00 | 0.00 | 60 | 1015.3 |
| 20260505073725 | 29 | 335 | 12.9 | 16.1 | 0.00 | 0.00 | 0.00 | 60 | 1015.2 |
| 20260505073603 | 29 | 335 | 11.3 | 16.1 | 0.00 | 0.00 | 0.00 | 60 | 1015.3 |
| 20260505073525 | 29 | 337 | 11.3 | 16.1 | 0.00 | 0.00 | 0.00 | 60 | 1015.3 |
| 20260505073403 | 29 | 334 | 11.3 | 16.1 | 0.00 | 0.00 | 0.00 | 60 | 1015.3 |
| 20260505073303 | 29 | 334 | 12.9 | 16.1 | 0.00 | 0.00 | 0.00 | 60 | 1015.5 |
| 20260505073204 | 29 | 333 | 12.9 | 16.1 | 0.00 | 0.00 | 0.00 | 60 | 1015.5 |
| 20260505073104 | 29 | 332 | 12.9 | 16.1 | 0.00 | 0.00 | 0.00 | 60 | 1015.5 |
| 20260505073004 | 29 | 332 | 12.9 | 16.1 | 0.00 | 0.00 | 0.00 | 60 | 1015.5 |
| 20260505072904 | 29 | 332 | 12.9 | 16.1 | 0.00 | 0.00 | 0.00 | 60 | 1015.5 |
| 20260505072804 | 29 | 336 | 12.9 | 16.1 | 0.00 | 0.00 | 0.00 | 60 | 1015.5 |
| 20260505072703 | 29 | 340 | 12.9 | 16.1 | 0.00 | 0.00 | 0.00 | 60 | 1015.5 |
| 20260505072603 | 29 | 341 | 12.9 | 16.1 | 0.00 | 0.00 | 0.00 | 60 | 1015.5 |
| 20260505072504 | 29 | 342 | 12.9 | 16.1 | 0.00 | 0.00 | 0.00 | 60 | 1015.6 |
| 20260505072404 | 29 | 345 | 11.3 | 16.1 | 0.00 | 0.00 | 0.00 | 60 | 1015.6 |
| 20260505072324 | 29 | 347 | 11.3 | 16.1 | 0.00 | 0.00 | 0.00 | 60 | 1015.6 |
| 20260505072203 | 29 | 355 | 9.7 | 16.1 | 0.00 | 0.00 | 0.00 | 60 | 1015.5 |
| 20260505072103 | 29 | 355 | 9.7 | 16.1 | 0.00 | 0.00 | 0.00 | 60 | 1015.5 |
| 20260505072024 | 29 | 356 | 9.7 | 16.1 | 0.00 | 0.00 | 0.00 | 60 | 1015.5 |
| 20260505071903 | 29 | 347 | 9.7 | 14.5 | 0.00 | 0.00 | 0.00 | 60 | 1015.5 |
| 20260505071824 | 29 | 341 | 9.7 | 14.5 | 0.00 | 0.00 | 0.00 | 60 | 1015.5 |
| 20260505071703 | 29 | 340 | 9.7 | 14.5 | 0.00 | 0.00 | 0.00 | 60 | 1015.6 |
| 20260505071603 | 29 | 341 | 9.7 | 14.5 | 0.00 | 0.00 | 0.00 | 60 | 1015.6 |
| 20260505071505 | 29 | 339 | 9.7 | 14.5 | 0.00 | 0.00 | 0.00 | 60 | 1015.8 |
| 20260505071403 | 29 | 336 | 9.7 | 12.9 | 0.00 | 0.00 | 0.00 | 60 | 1015.6 |
| 20260505071304 | 29 | 338 | 9.7 | 12.9 | 0.00 | 0.00 | 0.00 | 60 | 1015.6 |
| 20260505071203 | 29 | 338 | 9.7 | 12.9 | 0.00 | 0.00 | 0.00 | 60 | 1015.8 |
| 20260505071124 | 29 | 335 | 9.7 | 12.9 | 0.00 | 0.00 | 0.00 | 60 | 1015.9 |
| 20260505071024 | 29 | 329 | 9.7 | 12.9 | 0.00 | 0.00 | 0.00 | 60 | 1015.8 |
| 20260505070925 | 29 | 333 | 9.7 | 12.9 | 0.00 | 0.00 | 0.00 | 60 | 1015.8 |
| 20260505070803 | 29 | 341 | 8.0 | 12.9 | 0.00 | 0.00 | 0.00 | 60 | 1015.6 |
| 20260505070704 | 29 | 344 | 9.7 | 12.9 | 0.00 | 0.00 | 0.00 | 60 | 1015.9 |
| 20260505070603 | 29 | 345 | 9.7 | 12.9 | 0.00 | 0.00 | 0.00 | 60 | 1016.1 |
| 20260505070504 | 29 | 347 | 9.7 | 12.9 | 0.00 | 0.00 | 0.00 | 60 | 1015.6 |
| 20260505070403 | 29 | 353 | 9.7 | 12.9 | 0.00 | 0.00 | 0.00 | 60 | 1016.0 |
| 20260505070303 | 29 | 350 | 9.7 | 12.9 | 0.00 | 0.00 | 0.00 | 60 | 1015.9 |
| 20260505070224 | 29 | 349 | 9.7 | 12.9 | 0.00 | 0.00 | 0.00 | 60 | 1015.9 |
| 20260505070103 | 29 | 355 | 9.7 | 12.9 | 0.00 | 0.00 | 0.00 | 60 | 1016.0 |
| 20260505070004 | 29 | 359 | 9.7 | 12.9 | 0.00 | 0.03 | 0.00 | 60 | 1016.0 |
| 20260505065904 | 29 | 356 | 9.7 | 12.9 | 0.00 | 0.03 | 0.00 | 60 | 1016.1 |
| 20260505065803 | 29 | 354 | 9.7 | 12.9 | 0.00 | 0.03 | 0.00 | 60 | 1016.1 |
| 20260505065705 | 29 | 348 | 9.7 | 12.9 | 0.00 | 0.03 | 0.00 | 60 | 1015.9 |
| 20260505065603 | 29 | 344 | 9.7 | 14.5 | 0.00 | 0.03 | 0.00 | 60 | 1016.0 |
| 20260505065503 | 29 | 342 | 9.7 | 14.5 | 0.00 | 0.03 | 0.00 | 60 | 1016.0 |
| 20260505065404 | 29 | 341 | 8.0 | 14.5 | 0.00 | 0.03 | 0.00 | 60 | 1016.0 |
| 20260505065304 | 29 | 339 | 8.0 | 14.5 | 0.00 | 0.03 | 0.00 | 60 | 1016.1 |
| 20260505065203 | 29 | 336 | 9.7 | 14.5 | 0.00 | 0.03 | 0.00 | 60 | 1016.1 |
| 20260505065103 | 29 | 333 | 9.7 | 14.5 | 0.00 | 0.03 | 0.00 | 60 | 1016.1 |
| 20260505065024 | 29 | 330 | 8.0 | 14.5 | 0.00 | 0.03 | 0.00 | 60 | 1016.2 |
| 20260505064924 | 29 | 333 | 8.0 | 14.5 | 0.00 | 0.03 | 0.00 | 60 | 1016.1 |
| 20260505064825 | 29 | 334 | 8.0 | 14.5 | 0.00 | 0.03 | 0.00 | 60 | 1016.0 |
| 20260505064724 | 29 | 335 | 8.0 | 14.5 | 0.00 | 0.03 | 0.00 | 60 | 1016.2 |
| 20260505064603 | 29 | 333 | 8.0 | 16.1 | 0.00 | 0.03 | 0.00 | 60 | 1016.1 |
| 20260505064503 | 29 | 331 | 8.0 | 16.1 | 0.00 | 0.03 | 0.00 | 60 | 1016.0 |
| 20260505064403 | 29 | 329 | 9.7 | 16.1 | 0.00 | 0.03 | 0.00 | 60 | 1016.3 |
| 20260505064304 | 29 | 330 | 9.7 | 16.1 | 0.00 | 0.03 | 0.00 | 60 | 1016.3 |
| 20260505064203 | 29 | 331 | 9.7 | 16.1 | 0.00 | 0.03 | 0.00 | 60 | 1016.2 |
| 20260505064103 | 29 | 329 | 9.7 | 16.1 | 0.00 | 0.03 | 0.00 | 60 | 1016.3 |
| 20260505064003 | 29 | 326 | 9.7 | 16.1 | 0.00 | 0.03 | 0.00 | 60 | 1016.3 |
| 20260505063904 | 29 | 323 | 11.3 | 16.1 | 0.00 | 0.03 | 0.00 | 60 | 1016.3 |
| 20260505063805 | 29 | 324 | 11.3 | 17.7 | 0.00 | 0.03 | 0.00 | 60 | 1016.2 |
| 20260505063704 | 29 | 322 | 11.3 | 17.7 | 0.00 | 0.05 | 0.00 | 60 | 1016.4 |
| 20260505063603 | 29 | 322 | 11.3 | 17.7 | 0.00 | 0.05 | 0.00 | 60 | 1016.2 |
| 20260505063503 | 29 | 327 | 11.3 | 17.7 | 0.00 | 0.05 | 0.00 | 60 | 1016.3 |
| 20260505063403 | 29 | 326 | 11.3 | 17.7 | 0.00 | 0.05 | 0.00 | 60 | 1016.4 |
| 20260505063304 | 29 | 327 | 11.3 | 17.7 | 0.00 | 0.05 | 0.00 | 60 | 1016.3 |
| 20260505063224 | 29 | 327 | 11.3 | 17.7 | 0.00 | 0.05 | 0.00 | 60 | 1016.4 |
| 20260505063103 | 29 | 327 | 11.3 | 17.7 | 0.00 | 0.05 | 0.00 | 60 | 1016.4 |
| 20260505063003 | 29 | 332 | 11.3 | 17.7 | 0.00 | 0.05 | 0.00 | 60 | 1016.5 |
| 20260505062903 | 29 | 333 | 11.3 | 17.7 | 0.00 | 0.05 | 0.00 | 60 | 1016.5 |
| 20260505062804 | 29 | 335 | 9.7 | 14.5 | 0.00 | 0.05 | 0.00 | 60 | 1016.7 |
| 20260505062703 | 29 | 337 | 9.7 | 14.5 | 0.00 | 0.05 | 0.00 | 60 | 1016.6 |
| 20260505062603 | 29 | 343 | 8.0 | 14.5 | 0.00 | 0.05 | 0.00 | 60 | 1016.4 |
| 20260505062503 | 29 | 345 | 8.0 | 14.5 | 0.00 | 0.05 | 0.00 | 60 | 1016.7 |
| 20260505062403 | 29 | 348 | 9.7 | 14.5 | 0.00 | 0.05 | 0.00 | 60 | 1016.6 |
| 20260505062304 | 29 | 351 | 9.7 | 14.5 | 0.00 | 0.05 | 0.00 | 60 | 1016.6 |
| 20260505062203 | 29 | 351 | 9.7 | 14.5 | 0.00 | 0.05 | 0.00 | 60 | 1016.7 |
| 20260505062104 | 29 | 352 | 9.7 | 14.5 | 0.00 | 0.05 | 0.00 | 60 | 1016.7 |
| 20260505062003 | 29 | 353 | 9.7 | 14.5 | 0.00 | 0.05 | 0.00 | 60 | 1016.6 |
| 20260505061905 | 29 | 357 | 9.7 | 14.5 | 0.00 | 0.05 | 0.00 | 60 | 1016.6 |
| 20260505061803 | 29 | 360 | 11.3 | 20.9 | 0.00 | 0.05 | 0.00 | 60 | 1016.9 |
| 20260505061703 | 29 | 359 | 11.3 | 20.9 | 0.00 | 0.05 | 0.00 | 60 | 1016.9 |
| 20260505061624 | 29 | 1 | 12.9 | 20.9 | 0.00 | 0.05 | 0.00 | 60 | 1016.9 |
| 20260505061503 | 29 | 2 | 11.3 | 20.9 | 0.00 | 0.05 | 0.00 | 60 | 1016.9 |
| 20260505061403 | 29 | 3 | 11.3 | 20.9 | 0.00 | 0.05 | 0.00 | 60 | 1016.9 |
| 20260505061304 | 29 | 4 | 11.3 | 20.9 | 0.00 | 0.05 | 0.00 | 60 | 1016.9 |
| 20260505061203 | 29 | 6 | 11.3 | 20.9 | 0.00 | 0.05 | 0.00 | 60 | 1017.0 |
| 20260505061103 | 29 | 4 | 9.7 | 20.9 | 0.00 | 0.05 | 0.00 | 60 | 1017.0 |
| 20260505061003 | 29 | 3 | 9.7 | 20.9 | 0.00 | 0.05 | 0.00 | 60 | 1017.0 |
| 20260505060903 | 29 | 359 | 9.7 | 20.9 | 0.00 | 0.05 | 0.00 | 60 | 1016.9 |
| 20260505060803 | 29 | 356 | 8.0 | 14.5 | 0.00 | 0.05 | 0.00 | 60 | 1017.2 |
| 20260505060724 | 29 | 356 | 8.0 | 14.5 | 0.00 | 0.05 | 0.00 | 60 | 1017.1 |
| 20260505060603 | 29 | 353 | 8.0 | 16.1 | 0.00 | 0.05 | 0.00 | 60 | 1017.1 |
| 20260505060504 | 29 | 350 | 8.0 | 16.1 | 0.00 | 0.05 | 0.00 | 60 | 1017.0 |
| 20260505060403 | 29 | 341 | 9.7 | 16.1 | 0.00 | 0.05 | 0.00 | 60 | 1017.0 |
| 20260505060303 | 29 | 340 | 9.7 | 16.1 | 0.00 | 0.05 | 0.00 | 60 | 1017.2 |
| 20260505060203 | 29 | 335 | 9.7 | 16.1 | 0.00 | 0.05 | 0.00 | 60 | 1017.2 |
| 20260505060124 | 29 | 333 | 9.7 | 16.1 | 0.00 | 0.05 | 0.00 | 60 | 1017.1 |
| 20260505060026 | 29 | 334 | 9.7 | 16.1 | 0.00 | 0.05 | 0.00 | 60 | 1017.2 |
| 20260505055903 | 29 | 338 | 9.7 | 16.1 | 0.00 | 0.05 | 0.00 | 60 | 1017.2 |
| 20260505055803 | 29 | 340 | 9.7 | 16.1 | 0.00 | 0.05 | 0.00 | 60 | 1017.1 |
| 20260505055724 | 29 | 339 | 9.7 | 16.1 | 0.00 | 0.05 | 0.00 | 60 | 1017.1 |
| 20260505055603 | 29 | 335 | 9.7 | 16.1 | 0.00 | 0.05 | 0.00 | 60 | 1017.4 |
| 20260505055503 | 29 | 331 | 9.7 | 16.1 | 0.00 | 0.05 | 0.00 | 60 | 1017.3 |
| 20260505055403 | 29 | 335 | 9.7 | 16.1 | 0.00 | 0.05 | 0.00 | 60 | 1017.2 |
| 20260505055324 | 29 | 336 | 9.7 | 14.5 | 0.00 | 0.05 | 0.00 | 60 | 1017.2 |
| 20260505055203 | 29 | 341 | 9.7 | 14.5 | 0.00 | 0.05 | 0.00 | 60 | 1017.2 |
| 20260505055103 | 29 | 345 | 9.7 | 14.5 | 0.00 | 0.05 | 0.00 | 60 | 1017.1 |
| 20260505055024 | 29 | 347 | 9.7 | 16.1 | 0.00 | 0.05 | 0.00 | 60 | 1017.4 |
| 20260505054904 | 29 | 343 | 11.3 | 16.1 | 0.00 | 0.05 | 0.00 | 60 | 1017.3 |
| 20260505054825 | 29 | 341 | 11.3 | 16.1 | 0.00 | 0.05 | 0.00 | 60 | 1017.5 |
| 20260505054703 | 29 | 338 | 11.3 | 16.1 | 0.00 | 0.05 | 0.00 | 60 | 1017.3 |
| 20260505054603 | 29 | 341 | 11.3 | 16.1 | 0.00 | 0.05 | 0.00 | 60 | 1017.4 |
| 20260505054504 | 29 | 349 | 11.3 | 16.1 | 0.00 | 0.05 | 0.00 | 60 | 1017.4 |
| 20260505054424 | 29 | 352 | 11.3 | 16.1 | 0.00 | 0.05 | 0.00 | 60 | 1017.2 |
| 20260505054303 | 29 | 1 | 11.3 | 16.1 | 0.00 | 0.05 | 0.00 | 60 | 1017.5 |
| 20260505054203 | 29 | 10 | 11.3 | 16.1 | 0.00 | 0.05 | 0.00 | 60 | 1017.4 |
| 20260505054103 | 29 | 11 | 11.3 | 16.1 | 0.00 | 0.05 | 0.00 | 60 | 1017.3 |
| 20260505054003 | 29 | 13 | 11.3 | 16.1 | 0.00 | 0.05 | 0.00 | 60 | 1017.3 |
| 20260505053903 | 29 | 18 | 9.7 | 16.1 | 0.00 | 0.05 | 0.00 | 60 | 1017.6 |
| 20260505053805 | 29 | 25 | 11.3 | 16.1 | 0.00 | 0.05 | 0.00 | 60 | 1017.5 |
| 20260505053704 | 29 | 27 | 11.3 | 16.1 | 0.00 | 0.05 | 0.00 | 60 | 1017.5 |
| 20260505053603 | 29 | 26 | 11.3 | 16.1 | 0.00 | 0.05 | 0.00 | 60 | 1017.5 |
| 20260505053503 | 29 | 22 | 9.7 | 16.1 | 0.00 | 0.05 | 0.00 | 60 | 1017.5 |
| 20260505053403 | 29 | 20 | 9.7 | 16.1 | 0.00 | 0.05 | 0.00 | 60 | 1017.4 |
| 20260505053304 | 29 | 17 | 9.7 | 16.1 | 0.00 | 0.05 | 0.00 | 60 | 1017.5 |
| 20260505053203 | 29 | 13 | 9.7 | 16.1 | 0.00 | 0.05 | 0.00 | 60 | 1017.5 |
| 20260505053103 | 29 | 14 | 9.7 | 16.1 | 0.00 | 0.05 | 0.00 | 60 | 1017.6 |
| 20260505053004 | 29 | 13 | 9.7 | 16.1 | 0.00 | 0.05 | 0.00 | 60 | 1017.6 |
| 20260505052903 | 29 | 14 | 11.3 | 16.1 | 0.00 | 0.05 | 0.00 | 60 | 1017.6 |
| 20260505052804 | 29 | 13 | 9.7 | 16.1 | 0.00 | 0.05 | 0.00 | 60 | 1017.7 |
| 20260505052703 | 29 | 16 | 8.0 | 14.5 | 0.00 | 0.05 | 0.00 | 60 | 1017.7 |
| 20260505052603 | 29 | 16 | 8.0 | 14.5 | 0.00 | 0.05 | 0.00 | 60 | 1017.7 |
| 20260505052503 | 29 | 15 | 8.0 | 14.5 | 0.00 | 0.05 | 0.00 | 60 | 1017.7 |
| 20260505052403 | 29 | 17 | 8.0 | 14.5 | 0.00 | 0.05 | 0.00 | 60 | 1017.8 |
| 20260505052304 | 29 | 17 | 8.0 | 14.5 | 0.00 | 0.05 | 0.00 | 60 | 1017.9 |
| 20260505052204 | 29 | 8 | 8.0 | 14.5 | 0.00 | 0.05 | 0.00 | 60 | 1017.9 |
| 20260505052103 | 29 | 3 | 6.4 | 14.5 | 0.00 | 0.05 | 0.00 | 60 | 1017.9 |
| 20260505052003 | 29 | 7 | 6.4 | 12.9 | 0.00 | 0.05 | 0.00 | 60 | 1017.9 |
| 20260505051904 | 29 | 8 | 6.4 | 12.9 | 0.00 | 0.05 | 0.00 | 60 | 1017.8 |
| 20260505051803 | 29 | 1 | 6.4 | 11.3 | 0.00 | 0.05 | 0.00 | 60 | 1017.9 |
| 20260505051704 | 29 | 2 | 6.4 | 11.3 | 0.00 | 0.05 | 0.00 | 60 | 1017.8 |
| 20260505051603 | 29 | 4 | 4.8 | 11.3 | 0.00 | 0.05 | 0.00 | 60 | 1017.9 |
| 20260505051503 | 29 | 7 | 4.8 | 11.3 | 0.00 | 0.05 | 0.00 | 60 | 1017.9 |
| 20260505051403 | 29 | 359 | 6.4 | 11.3 | 0.00 | 0.05 | 0.00 | 60 | 1017.9 |
| 20260505051303 | 29 | 353 | 6.4 | 11.3 | 0.00 | 0.05 | 0.00 | 60 | 1017.8 |
| 20260505051224 | 29 | 351 | 6.4 | 14.5 | 0.00 | 0.05 | 0.00 | 60 | 1017.8 |
| 20260505051124 | 29 | 360 | 6.4 | 14.5 | 0.00 | 0.05 | 0.00 | 60 | 1017.9 |
| 20260505051003 | 29 | 352 | 8.0 | 14.5 | 0.00 | 0.05 | 0.00 | 60 | 1017.9 |
| 20260505050924 | 29 | 350 | 6.4 | 14.5 | 0.00 | 0.05 | 0.00 | 60 | 1018.0 |
| 20260505050803 | 29 | 344 | 8.0 | 14.5 | 0.00 | 0.05 | 0.00 | 60 | 1018.0 |
| 20260505050703 | 29 | 347 | 8.0 | 14.5 | 0.00 | 0.05 | 0.00 | 60 | 1018.1 |
| 20260505050603 | 29 | 341 | 8.0 | 14.5 | 0.00 | 0.05 | 0.00 | 60 | 1017.9 |
| 20260505050503 | 29 | 336 | 8.0 | 14.5 | 0.00 | 0.05 | 0.00 | 60 | 1018.0 |
| 20260505050403 | 29 | 333 | 8.0 | 14.5 | 0.00 | 0.05 | 0.00 | 60 | 1018.0 |
| 20260505050305 | 29 | 333 | 8.0 | 14.5 | 0.00 | 0.05 | 0.00 | 60 | 1018.1 |
| 20260505050203 | 29 | 330 | 8.0 | 14.5 | 0.00 | 0.05 | 0.00 | 60 | 1018.0 |
| 20260505050104 | 29 | 330 | 8.0 | 11.3 | 0.00 | 0.05 | 0.00 | 60 | 1018.3 |
| 20260505041703 | 29 | 31 | 6.4 | 12.9 | 0.00 | 0.05 | 0.00 | 60 | 1018.7 |
| 20260505041603 | 29 | 29 | 8.0 | 12.9 | 0.00 | 0.05 | 0.00 | 60 | 1018.9 |
| 20260505041504 | 29 | 32 | 8.0 | 12.9 | 0.00 | 0.05 | 0.00 | 60 | 1018.9 |
| 20260505041403 | 29 | 29 | 8.0 | 12.9 | 0.00 | 0.05 | 0.00 | 60 | 1018.8 |
| 20260505041303 | 29 | 25 | 8.0 | 12.9 | 0.00 | 0.05 | 0.00 | 60 | 1018.7 |
| 20260505041203 | 29 | 23 | 6.4 | 12.9 | 0.00 | 0.05 | 0.00 | 60 | 1018.7 |
| 20260505041103 | 29 | 25 | 6.4 | 12.9 | 0.00 | 0.05 | 0.00 | 60 | 1019.0 |
| 20260505041003 | 29 | 28 | 6.4 | 12.9 | 0.00 | 0.05 | 0.00 | 60 | 1018.9 |
| 20260505040903 | 29 | 29 | 6.4 | 11.3 | 0.00 | 0.05 | 0.00 | 60 | 1018.9 |
| 20260505040824 | 29 | 29 | 6.4 | 11.3 | 0.00 | 0.05 | 0.00 | 60 | 1018.9 |
| 20260505040703 | 29 | 23 | 6.4 | 11.3 | 0.00 | 0.05 | 0.00 | 60 | 1019.1 |
| 20260505040603 | 29 | 21 | 6.4 | 11.3 | 0.00 | 0.05 | 0.00 | 60 | 1019.0 |
| 20260505040503 | 29 | 7 | 6.4 | 11.3 | 0.00 | 0.05 | 0.00 | 60 | 1019.2 |
| 20260505040403 | 29 | 2 | 6.4 | 11.3 | 0.00 | 0.05 | 0.00 | 60 | 1019.1 |
| 20260505040303 | 29 | 4 | 6.4 | 11.3 | 0.00 | 0.05 | 0.00 | 60 | 1019.0 |
| 20260505040203 | 29 | 1 | 6.4 | 11.3 | 0.00 | 0.05 | 0.00 | 60 | 1019.0 |
| 20260505040103 | 29 | 356 | 6.4 | 11.3 | 0.00 | 0.05 | 0.00 | 60 | 1019.1 |
| 20260505040024 | 29 | 352 | 6.4 | 11.3 | 0.00 | 0.05 | 0.00 | 60 | 1019.4 |
| 20260505035903 | 29 | 349 | 4.8 | 11.3 | 0.00 | 0.05 | 0.00 | 60 | 1019.1 |
| 20260505035803 | 29 | 347 | 4.8 | 11.3 | 0.00 | 0.05 | 0.00 | 60 | 1019.0 |
| 20260505035704 | 29 | 348 | 4.8 | 11.3 | 0.00 | 0.05 | 0.00 | 60 | 1019.1 |
| 20260505035625 | 29 | 350 | 4.8 | 11.3 | 0.00 | 0.05 | 0.00 | 60 | 1019.0 |
| 20260505035503 | 29 | 349 | 4.8 | 11.3 | 0.00 | 0.05 | 0.00 | 60 | 1019.1 |
| 20260505035403 | 29 | 354 | 4.8 | 6.4 | 0.00 | 0.05 | 0.00 | 60 | 1019.2 |
| 20260505035304 | 29 | 349 | 3.2 | 6.4 | 0.00 | 0.05 | 0.00 | 60 | 1019.2 |
| 20260505035203 | 29 | 355 | 3.2 | 6.4 | 0.00 | 0.05 | 0.00 | 60 | 1019.1 |
| 20260505035103 | 29 | 2 | 3.2 | 6.4 | 0.00 | 0.05 | 0.00 | 60 | 1019.1 |
| 20260505035004 | 29 | 1 | 3.2 | 6.4 | 0.00 | 0.05 | 0.00 | 60 | 1019.0 |
| 20260505034903 | 29 | 360 | 3.2 | 6.4 | 0.00 | 0.05 | 0.00 | 60 | 1019.1 |
| 20260505034803 | 29 | 7 | 4.8 | 9.7 | 0.00 | 0.05 | 0.00 | 60 | 1019.4 |
| 20260505034703 | 29 | 359 | 4.8 | 9.7 | 0.00 | 0.05 | 0.00 | 60 | 1019.1 |
| 20260505034603 | 29 | 358 | 4.8 | 9.7 | 0.00 | 0.05 | 0.00 | 60 | 1019.1 |
| 20260505034503 | 29 | 4 | 4.8 | 9.7 | 0.00 | 0.05 | 0.00 | 60 | 1019.1 |
| 20260505034424 | 29 | 6 | 4.8 | 9.7 | 0.00 | 0.05 | 0.00 | 60 | 1019.2 |
| 20260505034303 | 29 | 360 | 4.8 | 9.7 | 0.00 | 0.05 | 0.00 | 60 | 1019.4 |
| 20260505034203 | 29 | 358 | 4.8 | 9.7 | 0.00 | 0.05 | 0.00 | 60 | 1019.1 |
| 20260505034104 | 29 | 358 | 3.2 | 9.7 | 0.00 | 0.05 | 0.00 | 60 | 1019.1 |
| 20260505034004 | 29 | 360 | 3.2 | 9.7 | 0.00 | 0.05 | 0.00 | 60 | 1019.0 |
| 20260505033924 | 29 | 360 | 3.2 | 9.7 | 0.00 | 0.05 | 0.00 | 60 | 1019.4 |
| 20260505033803 | 29 | 359 | 3.2 | 9.7 | 0.00 | 0.05 | 0.00 | 60 | 1019.4 |
| 20260505033703 | 29 | 357 | 3.2 | 9.7 | 0.00 | 0.05 | 0.00 | 60 | 1019.4 |
| 20260505033603 | 29 | 351 | 3.2 | 9.7 | 0.00 | 0.05 | 0.00 | 60 | 1019.2 |
| 20260505033524 | 29 | 347 | 3.2 | 9.7 | 0.00 | 0.05 | 0.00 | 60 | 1019.2 |
| 20260505033403 | 29 | 350 | 3.2 | 9.7 | 0.00 | 0.05 | 0.00 | 60 | 1019.5 |
| 20260505033303 | 29 | 355 | 3.2 | 9.7 | 0.00 | 0.05 | 0.00 | 60 | 1019.2 |
| 20260505033225 | 29 | 2 | 3.2 | 9.7 | 0.00 | 0.05 | 0.00 | 60 | 1019.4 |
| 20260505033103 | 29 | 4 | 4.8 | 9.7 | 0.00 | 0.05 | 0.00 | 60 | 1019.2 |
| 20260505033003 | 29 | 5 | 4.8 | 9.7 | 0.00 | 0.05 | 0.00 | 60 | 1019.4 |
| 20260505032903 | 29 | 12 | 4.8 | 9.7 | 0.00 | 0.05 | 0.00 | 60 | 1019.4 |
| 20260505032824 | 29 | 11 | 4.8 | 9.7 | 0.00 | 0.05 | 0.00 | 60 | 1019.5 |
| 20260505032703 | 29 | 10 | 4.8 | 9.7 | 0.00 | 0.05 | 0.00 | 60 | 1019.4 |
| 20260505032603 | 29 | 12 | 4.8 | 9.7 | 0.00 | 0.05 | 0.00 | 60 | 1019.2 |
| 20260505032503 | 29 | 12 | 4.8 | 9.7 | 0.00 | 0.05 | 0.00 | 60 | 1019.4 |
| 20260505032403 | 29 | 5 | 4.8 | 9.7 | 0.00 | 0.05 | 0.00 | 60 | 1019.2 |
| 20260505032304 | 29 | 356 | 3.2 | 6.4 | 0.00 | 0.05 | 0.00 | 60 | 1019.4 |
| 20260505032203 | 29 | 344 | 3.2 | 6.4 | 0.00 | 0.05 | 0.00 | 60 | 1019.4 |
| 20260505032105 | 29 | 339 | 3.2 | 6.4 | 0.00 | 0.05 | 0.00 | 60 | 1019.5 |
| 20260505032003 | 29 | 333 | 3.2 | 6.4 | 0.00 | 0.05 | 0.00 | 60 | 1019.5 |
| 20260505031903 | 29 | 325 | 3.2 | 6.4 | 0.00 | 0.05 | 0.00 | 60 | 1019.6 |
| 20260505031803 | 29 | 325 | 3.2 | 6.4 | 0.00 | 0.05 | 0.00 | 60 | 1019.5 |
| 20260505031703 | 29 | 330 | 3.2 | 6.4 | 0.00 | 0.05 | 0.00 | 60 | 1019.6 |
| 20260505031603 | 29 | 330 | 3.2 | 6.4 | 0.00 | 0.05 | 0.00 | 60 | 1019.7 |
| 20260505031503 | 29 | 333 | 3.2 | 6.4 | 0.00 | 0.05 | 0.00 | 60 | 1019.5 |
| 20260505031403 | 29 | 343 | 3.2 | 6.4 | 0.00 | 0.05 | 0.00 | 60 | 1019.5 |
| 20260505031303 | 29 | 354 | 4.8 | 6.4 | 0.00 | 0.05 | 0.00 | 60 | 1019.5 |
| 20260505031205 | 29 | 1 | 4.8 | 6.4 | 0.00 | 0.05 | 0.00 | 60 | 1019.6 |
| 20260505031124 | 29 | 4 | 4.8 | 6.4 | 0.00 | 0.05 | 0.00 | 60 | 1019.6 |
| 20260505031004 | 29 | 8 | 3.2 | 6.4 | 0.00 | 0.05 | 0.00 | 60 | 1019.6 |
| 20260505030903 | 29 | 16 | 3.2 | 6.4 | 0.00 | 0.05 | 0.00 | 60 | 1019.6 |
| 20260505030803 | 29 | 16 | 3.2 | 6.4 | 0.00 | 0.05 | 0.00 | 60 | 1019.8 |
| 20260505030724 | 29 | 12 | 3.2 | 6.4 | 0.00 | 0.05 | 0.00 | 60 | 1019.7 |
| 20260505030603 | 29 | 8 | 3.2 | 6.4 | 0.00 | 0.05 | 0.00 | 60 | 1019.6 |
| 20260505030526 | 29 | 9 | 3.2 | 6.4 | 0.00 | 0.05 | 0.00 | 60 | 1019.7 |
| 20260505030403 | 29 | 14 | 3.2 | 6.4 | 0.00 | 0.05 | 0.00 | 60 | 1019.7 |
| 20260505030324 | 29 | 9 | 3.2 | 6.4 | 0.00 | 0.05 | 0.00 | 60 | 1019.5 |
| 20260505030203 | 29 | 5 | 3.2 | 4.8 | 0.00 | 0.05 | 0.00 | 60 | 1019.8 |
| 20260505030103 | 29 | 30 | 1.6 | 4.8 | 0.00 | 0.05 | 0.00 | 60 | 1019.6 |
| 20260505030004 | 29 | 88 | 3.2 | 4.8 | 0.00 | 0.05 | 0.00 | 60 | 1019.6 |
| 20260505025903 | 29 | 75 | 3.2 | 4.8 | 0.00 | 0.05 | 0.00 | 60 | 1019.7 |
| 20260505025803 | 29 | 51 | 3.2 | 4.8 | 0.00 | 0.05 | 0.00 | 60 | 1019.7 |
| 20260505025724 | 29 | 48 | 3.2 | 4.8 | 0.00 | 0.05 | 0.00 | 60 | 1019.8 |
| 20260505025624 | 29 | 46 | 3.2 | 4.8 | 0.00 | 0.05 | 0.00 | 60 | 1019.7 |
| 20260505025503 | 29 | 43 | 3.2 | 4.8 | 0.00 | 0.05 | 0.00 | 60 | 1019.8 |
| 20260505025403 | 29 | 37 | 3.2 | 4.8 | 0.00 | 0.05 | 0.00 | 60 | 1019.7 |
| 20260505025304 | 29 | 32 | 3.2 | 4.8 | 0.00 | 0.05 | 0.00 | 60 | 1019.7 |
| 20260505025203 | 29 | 20 | 1.6 | 4.8 | 0.00 | 0.05 | 0.00 | 60 | 1019.8 |
| 20260505025104 | 29 | 14 | 1.6 | 4.8 | 0.00 | 0.05 | 0.00 | 60 | 1019.8 |
| 20260505025004 | 29 | 359 | 1.6 | 4.8 | 0.00 | 0.05 | 0.00 | 60 | 1019.7 |
| 20260505024903 | 29 | 6 | 1.6 | 4.8 | 0.00 | 0.05 | 0.00 | 60 | 1019.7 |
| 20260505024826 | 29 | 21 | 1.6 | 4.8 | 0.00 | 0.05 | 0.00 | 60 | 1019.7 |
| 20260505024703 | 29 | 30 | 1.6 | 4.8 | 0.00 | 0.05 | 0.00 | 60 | 1019.8 |
| 20260505024603 | 29 | 45 | 3.2 | 6.4 | 0.00 | 0.05 | 0.00 | 60 | 1019.7 |
| 20260505024503 | 29 | 55 | 3.2 | 9.7 | 0.00 | 0.05 | 0.00 | 60 | 1019.8 |
| 20260505024424 | 29 | 60 | 3.2 | 9.7 | 0.00 | 0.05 | 0.00 | 60 | 1019.7 |
| 20260505024303 | 29 | 58 | 3.2 | 9.7 | 0.00 | 0.05 | 0.00 | 60 | 1019.7 |
| 20260505024203 | 29 | 54 | 3.2 | 9.7 | 0.00 | 0.05 | 0.00 | 60 | 1019.6 |
| 20260505024103 | 29 | 51 | 4.8 | 9.7 | 0.00 | 0.05 | 0.00 | 60 | 1019.7 |
| 20260505024024 | 29 | 50 | 4.8 | 9.7 | 0.00 | 0.05 | 0.00 | 60 | 1019.8 |
| 20260505023903 | 29 | 50 | 4.8 | 9.7 | 0.00 | 0.05 | 0.00 | 60 | 1019.6 |
| 20260505023824 | 29 | 46 | 4.8 | 9.7 | 0.00 | 0.05 | 0.00 | 60 | 1019.7 |
| 20260505023703 | 29 | 46 | 3.2 | 9.7 | 0.00 | 0.05 | 0.00 | 60 | 1019.8 |
| 20260505023624 | 29 | 41 | 3.2 | 9.7 | 0.00 | 0.05 | 0.00 | 60 | 1019.6 |
| 20260505023503 | 29 | 31 | 3.2 | 6.4 | 0.00 | 0.05 | 0.00 | 60 | 1019.7 |
| 20260505023403 | 29 | 25 | 3.2 | 6.4 | 0.00 | 0.05 | 0.00 | 60 | 1019.7 |
| 20260505023324 | 29 | 31 | 3.2 | 6.4 | 0.00 | 0.05 | 0.00 | 60 | 1019.7 |
| 20260505023203 | 29 | 48 | 3.2 | 6.4 | 0.00 | 0.05 | 0.00 | 60 | 1019.7 |
| 20260505023104 | 29 | 58 | 3.2 | 6.4 | 0.00 | 0.05 | 0.00 | 60 | 1019.6 |
| 20260505023003 | 29 | 68 | 3.2 | 6.4 | 0.00 | 0.05 | 0.00 | 60 | 1019.6 |
| 20260505022903 | 29 | 81 | 3.2 | 6.4 | 0.00 | 0.05 | 0.00 | 60 | 1019.7 |
| 20260505022824 | 29 | 85 | 4.8 | 6.4 | 0.00 | 0.05 | 0.00 | 60 | 1019.6 |
| 20260505022703 | 29 | 83 | 4.8 | 6.4 | 0.00 | 0.05 | 0.00 | 60 | 1019.6 |
| 20260505022603 | 29 | 86 | 4.8 | 6.4 | 0.00 | 0.05 | 0.00 | 60 | 1019.8 |
| 20260505022503 | 29 | 87 | 4.8 | 6.4 | 0.00 | 0.05 | 0.00 | 60 | 1019.8 |
| 20260505022403 | 29 | 87 | 4.8 | 6.4 | 0.00 | 0.05 | 0.00 | 60 | 1019.6 |
| 20260505022304 | 29 | 89 | 4.8 | 6.4 | 0.00 | 0.05 | 0.00 | 60 | 1019.8 |
| 20260505022224 | 29 | 94 | 4.8 | 6.4 | 0.00 | 0.05 | 0.00 | 60 | 1019.7 |
| 20260505022124 | 29 | 95 | 4.8 | 6.4 | 0.00 | 0.05 | 0.00 | 60 | 1019.5 |
| 20260505022003 | 29 | 94 | 4.8 | 6.4 | 0.00 | 0.05 | 0.00 | 60 | 1019.7 |
| 20260505021903 | 29 | 90 | 4.8 | 6.4 | 0.00 | 0.05 | 0.00 | 60 | 1019.6 |
| 20260505021803 | 29 | 88 | 3.2 | 6.4 | 0.00 | 0.05 | 0.00 | 60 | 1019.9 |
| 20260505021704 | 29 | 92 | 3.2 | 6.4 | 0.00 | 0.05 | 0.00 | 60 | 1019.8 |
| 20260505021603 | 29 | 101 | 3.2 | 4.8 | 0.00 | 0.05 | 0.00 | 60 | 1019.7 |
| 20260505021503 | 29 | 102 | 3.2 | 6.4 | 0.00 | 0.05 | 0.00 | 60 | 1019.6 |
| 20260505021403 | 29 | 108 | 3.2 | 6.4 | 0.00 | 0.05 | 0.00 | 60 | 1019.6 |
| 20260505021304 | 29 | 106 | 3.2 | 6.4 | 0.00 | 0.05 | 0.00 | 60 | 1019.9 |
| 20260505021224 | 29 | 100 | 3.2 | 6.4 | 0.00 | 0.05 | 0.00 | 60 | 1019.6 |
| 20260505021103 | 29 | 94 | 3.2 | 6.4 | 0.00 | 0.05 | 0.00 | 60 | 1019.6 |
| 20260505021024 | 29 | 96 | 3.2 | 6.4 | 0.00 | 0.05 | 0.00 | 60 | 1019.7 |
| 20260505020924 | 29 | 95 | 3.2 | 6.4 | 0.00 | 0.05 | 0.00 | 60 | 1019.6 |
| 20260505020803 | 29 | 85 | 3.2 | 6.4 | 0.00 | 0.05 | 0.00 | 60 | 1019.7 |
| 20260505020703 | 29 | 86 | 3.2 | 6.4 | 0.00 | 0.05 | 0.00 | 60 | 1019.6 |
| 20260505020603 | 29 | 85 | 3.2 | 6.4 | 0.00 | 0.05 | 0.00 | 60 | 1019.5 |
| 20260505020503 | 29 | 83 | 3.2 | 4.8 | 0.00 | 0.05 | 0.00 | 60 | 1019.6 |
| 20260505020403 | 29 | 86 | 3.2 | 4.8 | 0.00 | 0.05 | 0.00 | 60 | 1019.5 |
| 20260505020303 | 29 | 92 | 3.2 | 4.8 | 0.00 | 0.05 | 0.00 | 60 | 1019.7 |
| 20260505020203 | 29 | 101 | 3.2 | 4.8 | 0.00 | 0.05 | 0.00 | 60 | 1019.5 |
| 20260505020103 | 29 | 106 | 3.2 | 4.8 | 0.00 | 0.05 | 0.00 | 60 | 1019.6 |
| 20260505020003 | 29 | 109 | 3.2 | 4.8 | 0.00 | 0.05 | 0.00 | 60 | 1019.6 |
| 20260505015924 | 29 | 113 | 3.2 | 4.8 | 0.00 | 0.05 | 0.00 | 60 | 1019.4 |
| 20260505015803 | 29 | 123 | 3.2 | 4.8 | 0.00 | 0.05 | 0.00 | 60 | 1019.5 |
| 20260505015705 | 29 | 135 | 3.2 | 4.8 | 0.00 | 0.05 | 0.00 | 60 | 1019.5 |
| 20260505015603 | 29 | 141 | 3.2 | 4.8 | 0.00 | 0.05 | 0.00 | 60 | 1019.4 |
| 20260505015503 | 29 | 140 | 3.2 | 4.8 | 0.00 | 0.05 | 0.00 | 60 | 1019.6 |
| 20260505015403 | 29 | 141 | 3.2 | 4.8 | 0.00 | 0.05 | 0.00 | 60 | 1019.5 |
| 20260505015304 | 29 | 133 | 3.2 | 4.8 | 0.00 | 0.05 | 0.00 | 60 | 1019.7 |
| 20260505015224 | 29 | 132 | 1.6 | 4.8 | 0.00 | 0.05 | 0.00 | 60 | 1019.5 |
| 20260505015103 | 29 | 119 | 1.6 | 4.8 | 0.00 | 0.05 | 0.00 | 60 | 1019.6 |
| 20260505015003 | 29 | 97 | 1.6 | 4.8 | 0.00 | 0.05 | 0.00 | 60 | 1019.6 |
| 20260505014903 | 29 | 80 | 1.6 | 4.8 | 0.00 | 0.05 | 0.00 | 60 | 1019.6 |
| 20260505014803 | 29 | 52 | 1.6 | 4.8 | 0.00 | 0.05 | 0.00 | 60 | 1019.7 |
| 20260505014703 | 29 | 29 | 1.6 | 3.2 | 0.00 | 0.05 | 0.00 | 60 | 1019.7 |
| 20260505014603 | 29 | 27 | 1.6 | 3.2 | 0.00 | 0.05 | 0.00 | 60 | 1019.4 |
| 20260505014504 | 29 | 37 | 1.6 | 3.2 | 0.00 | 0.05 | 0.00 | 60 | 1019.6 |
| 20260505014403 | 29 | 38 | 1.6 | 3.2 | 0.00 | 0.05 | 0.00 | 60 | 1019.5 |
| 20260505014303 | 29 | 45 | 1.6 | 3.2 | 0.00 | 0.05 | 0.00 | 60 | 1019.5 |
| 20260505014204 | 29 | 55 | 1.6 | 3.2 | 0.00 | 0.05 | 0.00 | 60 | 1019.6 |
| 20260505014104 | 29 | 95 | 1.6 | 3.2 | 0.00 | 0.05 | 0.00 | 60 | 1019.4 |
| 20260505014003 | 29 | 130 | 1.6 | 3.2 | 0.00 | 0.05 | 0.00 | 60 | 1019.5 |
| 20260505013925 | 29 | 133 | 1.6 | 3.2 | 0.00 | 0.05 | 0.00 | 60 | 1019.5 |
| 20260505013803 | 29 | 138 | 1.6 | 3.2 | 0.00 | 0.05 | 0.00 | 60 | 1019.5 |
| 20260505013703 | 29 | 148 | 1.6 | 3.2 | 0.00 | 0.05 | 0.00 | 60 | 1019.5 |
| 20260505013603 | 29 | 154 | 1.6 | 3.2 | 0.00 | 0.05 | 0.00 | 60 | 1019.5 |
| 20260505013504 | 29 | 160 | 1.6 | 3.2 | 0.00 | 0.05 | 0.00 | 60 | 1019.4 |
| 20260505013404 | 29 | 163 | 1.6 | 3.2 | 0.00 | 0.05 | 0.00 | 60 | 1019.5 |
| 20260505013303 | 29 | 166 | 1.6 | 3.2 | 0.00 | 0.05 | 0.00 | 60 | 1019.7 |
| 20260505013203 | 29 | 155 | 1.6 | 3.2 | 0.00 | 0.05 | 0.00 | 60 | 1019.4 |
| 20260505013104 | 29 | 136 | 1.6 | 3.2 | 0.00 | 0.05 | 0.00 | 60 | 1019.6 |
| 20260505013003 | 29 | 133 | 1.6 | 4.8 | 0.00 | 0.05 | 0.00 | 60 | 1019.5 |
| 20260505012903 | 29 | 142 | 1.6 | 4.8 | 0.00 | 0.05 | 0.00 | 60 | 1019.6 |
| 20260505012803 | 29 | 140 | 1.6 | 4.8 | 0.00 | 0.05 | 0.00 | 60 | 1019.5 |
| 20260505012704 | 29 | 136 | 1.6 | 4.8 | 0.00 | 0.05 | 0.00 | 60 | 1019.5 |
| 20260505012603 | 29 | 129 | 1.6 | 4.8 | 0.00 | 0.05 | 0.00 | 60 | 1019.4 |
| 20260505012503 | 29 | 127 | 1.6 | 4.8 | 0.00 | 0.05 | 0.00 | 60 | 1019.4 |
| 20260505012425 | 29 | 127 | 1.6 | 4.8 | 0.00 | 0.05 | 0.00 | 60 | 1019.5 |
| 20260505012304 | 29 | 127 | 1.6 | 4.8 | 0.00 | 0.05 | 0.00 | 60 | 1019.4 |
| 20260505012225 | 29 | 130 | 1.6 | 4.8 | 0.00 | 0.05 | 0.00 | 60 | 1019.4 |
| 20260505012103 | 29 | 144 | 1.6 | 4.8 | 0.00 | 0.05 | 0.00 | 60 | 1019.4 |
| 20260505012004 | 29 | 151 | 1.6 | 4.8 | 0.00 | 0.05 | 0.00 | 60 | 1019.2 |
| 20260505011903 | 29 | 160 | 1.6 | 4.8 | 0.00 | 0.05 | 0.00 | 60 | 1019.2 |
| 20260505011805 | 29 | 182 | 1.6 | 4.8 | 0.00 | 0.05 | 0.00 | 60 | 1019.6 |
| 20260505011703 | 29 | 201 | 1.6 | 4.8 | 0.00 | 0.05 | 0.00 | 60 | 1019.2 |
| 20260505011625 | 29 | 206 | 1.6 | 4.8 | 0.00 | 0.05 | 0.00 | 60 | 1019.2 |
| 20260505011524 | 29 | 208 | 1.6 | 4.8 | 0.00 | 0.05 | 0.00 | 60 | 1019.4 |
| 20260505011403 | 29 | 209 | 1.6 | 4.8 | 0.00 | 0.05 | 0.00 | 60 | 1019.4 |
| 20260505011303 | 29 | 209 | 1.6 | 4.8 | 0.00 | 0.05 | 0.00 | 60 | 1019.4 |
| 20260505011225 | 29 | 217 | 1.6 | 3.2 | 0.00 | 0.05 | 0.00 | 60 | 1019.2 |
| 20260505011103 | 29 | 226 | 1.6 | 3.2 | 0.00 | 0.05 | 0.00 | 60 | 1019.2 |
| 20260505011003 | 29 | 225 | 1.6 | 3.2 | 0.00 | 0.05 | 0.00 | 60 | 1019.2 |
| 20260505010903 | 29 | 215 | 1.6 | 3.2 | 0.00 | 0.05 | 0.00 | 60 | 1019.2 |
| 20260505010803 | 29 | 194 | 0.0 | 3.2 | 0.00 | 0.05 | 0.00 | 60 | 1019.1 |
| 20260505010703 | 29 | 175 | 0.0 | 3.2 | 0.00 | 0.05 | 0.00 | 60 | 1019.2 |
| 20260505010625 | 29 | 152 | 0.0 | 3.2 | 0.00 | 0.05 | 0.00 | 60 | 1019.2 |
| 20260505010524 | 29 | 110 | 0.0 | 1.6 | 0.00 | 0.05 | 0.00 | 60 | 1019.2 |
| 20260505010404 | 29 | 110 | 0.0 | 1.6 | 0.00 | 0.05 | 0.00 | 60 | 1019.2 |
| 20260505010304 | 29 | 110 | 0.0 | 1.6 | 0.00 | 0.05 | 0.00 | 60 | 1019.1 |
| 20260505010203 | 29 | 110 | 0.0 | 1.6 | 0.00 | 0.05 | 0.00 | 60 | 1019.1 |
| 20260505010104 | 29 | 124 | 0.0 | 1.6 | 0.00 | 0.05 | 0.00 | 60 | 1019.2 |
| 20260505010004 | 29 | 157 | 0.0 | 1.6 | 0.00 | 0.05 | 0.00 | 60 | 1019.1 |
| 20260505005905 | 29 | 158 | 0.0 | 1.6 | 0.00 | 0.05 | 0.00 | 60 | 1019.0 |
| 20260505005803 | 29 | 0 | 0.0 | 0.0 | 0.00 | 0.05 | 0.00 | 60 | 1019.2 |
| 20260505005704 | 29 | 0 | 0.0 | 0.0 | 0.00 | 0.05 | 0.00 | 60 | 1019.1 |
| 20260505005604 | 29 | 0 | 0.0 | 0.0 | 0.00 | 0.05 | 0.00 | 60 | 1019.1 |
| 20260505005503 | 29 | 0 | 0.0 | 0.0 | 0.00 | 0.05 | 0.00 | 60 | 1019.0 |
| 20260505005403 | 29 | 0 | 0.0 | 0.0 | 0.00 | 0.05 | 0.00 | 60 | 1019.1 |
| 20260505005324 | 29 | 0 | 0.0 | 0.0 | 0.00 | 0.05 | 0.00 | 60 | 1019.1 |
| 20260505005203 | 29 | 0 | 0.0 | 0.0 | 0.00 | 0.05 | 0.00 | 60 | 1019.2 |
| 20260505005104 | 29 | 0 | 0.0 | 0.0 | 0.00 | 0.05 | 0.00 | 60 | 1019.1 |
| 20260505005004 | 29 | 0 | 0.0 | 0.0 | 0.00 | 0.05 | 0.00 | 60 | 1019.2 |
| 20260505004904 | 29 | 80 | 0.0 | 1.6 | 0.00 | 0.05 | 0.00 | 60 | 1019.0 |
| 20260505004804 | 29 | 75 | 0.0 | 1.6 | 0.00 | 0.05 | 0.00 | 60 | 1019.1 |
| 20260505004704 | 29 | 74 | 0.0 | 1.6 | 0.00 | 0.05 | 0.00 | 60 | 1019.2 |
| 20260505004604 | 29 | 86 | 0.0 | 3.2 | 0.00 | 0.05 | 0.00 | 60 | 1019.0 |
| 20260505004503 | 29 | 94 | 1.6 | 3.2 | 0.00 | 0.05 | 0.00 | 60 | 1019.1 |
| 20260505004403 | 29 | 94 | 1.6 | 3.2 | 0.00 | 0.05 | 0.00 | 60 | 1019.2 |
| 20260505004304 | 29 | 94 | 1.6 | 3.2 | 0.00 | 0.05 | 0.00 | 60 | 1019.1 |
| 20260505004226 | 29 | 94 | 1.6 | 3.2 | 0.00 | 0.05 | 0.00 | 60 | 1019.1 |
| 20260505004103 | 29 | 89 | 1.6 | 3.2 | 0.00 | 0.05 | 0.00 | 60 | 1019.0 |
| 20260505004003 | 29 | 92 | 1.6 | 3.2 | 0.00 | 0.05 | 0.00 | 60 | 1019.1 |
| 20260505003903 | 29 | 98 | 1.6 | 3.2 | 0.00 | 0.05 | 0.00 | 60 | 1018.9 |
| 20260505003803 | 29 | 99 | 1.6 | 3.2 | 0.00 | 0.05 | 0.00 | 60 | 1019.1 |
| 20260505003704 | 29 | 102 | 1.6 | 3.2 | 0.00 | 0.05 | 0.00 | 60 | 1018.9 |
| 20260505003603 | 29 | 102 | 1.6 | 3.2 | 0.00 | 0.05 | 0.00 | 60 | 1018.9 |
| 20260505003503 | 29 | 99 | 1.6 | 3.2 | 0.00 | 0.05 | 0.00 | 60 | 1018.9 |
| 20260505003403 | 29 | 99 | 1.6 | 3.2 | 0.00 | 0.05 | 0.00 | 60 | 1019.0 |
| 20260505003303 | 29 | 99 | 1.6 | 3.2 | 0.00 | 0.05 | 0.00 | 60 | 1018.9 |
| 20260505003224 | 29 | 99 | 1.6 | 3.2 | 0.00 | 0.05 | 0.00 | 60 | 1018.9 |
| 20260505003125 | 29 | 102 | 1.6 | 3.2 | 0.00 | 0.05 | 0.00 | 60 | 1019.0 |
| 20260505003004 | 29 | 104 | 0.0 | 3.2 | 0.00 | 0.05 | 0.00 | 60 | 1018.9 |
| 20260505002904 | 29 | 94 | 0.0 | 3.2 | 0.00 | 0.05 | 0.00 | 60 | 1018.9 |
| 20260505002803 | 29 | 0 | 0.0 | 0.0 | 0.00 | 0.05 | 0.00 | 60 | 1018.7 |
| 20260505002725 | 29 | 0 | 0.0 | 0.0 | 0.00 | 0.05 | 0.00 | 60 | 1018.9 |
| 20260505002625 | 29 | 0 | 0.0 | 0.0 | 0.00 | 0.05 | 0.00 | 60 | 1018.8 |
| 20260505002505 | 29 | 0 | 0.0 | 0.0 | 0.00 | 0.05 | 0.00 | 60 | 1018.9 |
| 20260505002403 | 29 | 0 | 0.0 | 0.0 | 0.00 | 0.05 | 0.00 | 60 | 1018.9 |
| 20260505002304 | 29 | 0 | 0.0 | 0.0 | 0.00 | 0.05 | 0.00 | 60 | 1018.8 |
| 20260505002203 | 29 | 0 | 0.0 | 0.0 | 0.00 | 0.05 | 0.00 | 60 | 1018.6 |
| 20260505002103 | 29 | 0 | 0.0 | 0.0 | 0.00 | 0.05 | 0.00 | 60 | 1018.7 |
| 20260505002003 | 29 | 0 | 0.0 | 0.0 | 0.00 | 0.05 | 0.00 | 60 | 1018.6 |
| 20260505001903 | 29 | 0 | 0.0 | 0.0 | 0.00 | 0.05 | 0.00 | 60 | 1018.7 |
| 20260505001803 | 29 | 0 | 0.0 | 0.0 | 0.00 | 0.05 | 0.00 | 60 | 1018.7 |
| 20260505001724 | 29 | 0 | 0.0 | 0.0 | 0.00 | 0.05 | 0.00 | 60 | 1018.8 |
| 20260505001603 | 29 | 0 | 0.0 | 0.0 | 0.00 | 0.05 | 0.00 | 60 | 1018.7 |
| 20260505001504 | 29 | 0 | 0.0 | 0.0 | 0.00 | 0.05 | 0.00 | 60 | 1018.7 |
| 20260505001403 | 29 | 0 | 0.0 | 0.0 | 0.00 | 0.05 | 0.00 | 60 | 1018.8 |
| 20260505001304 | 29 | 150 | 0.0 | 1.6 | 0.00 | 0.05 | 0.00 | 60 | 1018.7 |
| 20260505001225 | 29 | 150 | 0.0 | 1.6 | 0.00 | 0.05 | 0.00 | 60 | 1018.6 |
| 20260505001103 | 29 | 160 | 0.0 | 1.6 | 0.00 | 0.05 | 0.00 | 60 | 1018.7 |
| 20260505001003 | 29 | 166 | 0.0 | 3.2 | 0.00 | 0.05 | 0.00 | 60 | 1018.7 |
| 20260505000904 | 29 | 153 | 0.0 | 3.2 | 0.00 | 0.05 | 0.00 | 60 | 1018.9 |
| 20260505000804 | 29 | 149 | 1.6 | 3.2 | 0.00 | 0.05 | 0.00 | 60 | 1018.8 |
| 20260505000703 | 29 | 143 | 1.6 | 3.2 | 0.00 | 0.05 | 0.00 | 60 | 1018.5 |
| 20260505000603 | 29 | 142 | 1.6 | 3.2 | 0.00 | 0.05 | 0.00 | 60 | 1018.6 |
| 20260505000503 | 29 | 149 | 1.6 | 3.2 | 0.00 | 0.05 | 0.00 | 60 | 1018.7 |
| 20260505000405 | 29 | 148 | 1.6 | 3.2 | 0.00 | 0.05 | 0.00 | 60 | 1018.6 |
| 20260505000303 | 29 | 148 | 1.6 | 3.2 | 0.00 | 0.05 | 0.00 | 60 | 1018.6 |
| 20260505000204 | 29 | 144 | 1.6 | 3.2 | 0.00 | 0.05 | 0.00 | 60 | 1018.4 |
| 20260505000124 | 29 | 144 | 1.6 | 3.2 | 0.00 | 0.05 | 0.00 | 60 | 1018.5 |
| 20260505000004 | 29 | 141 | 1.6 | 3.2 | 0.00 | 0.05 | 0.00 | 60 | 1018.6 |
| 20260504235904 | 29 | 146 | 1.6 | 4.8 | 0.00 | 0.05 | 0.00 | 60 | 1018.6 |
| 20260504235803 | 29 | 150 | 3.2 | 4.8 | 0.00 | 0.05 | 0.00 | 60 | 1018.6 |
| 20260504235704 | 29 | 152 | 3.2 | 4.8 | 0.00 | 0.05 | 0.00 | 60 | 1018.6 |
| 20260504235603 | 29 | 155 | 3.2 | 4.8 | 0.00 | 0.05 | 0.00 | 60 | 1018.5 |
| 20260504235503 | 29 | 154 | 3.2 | 4.8 | 0.00 | 0.05 | 0.00 | 60 | 1018.6 |
| 20260504235403 | 29 | 157 | 3.2 | 4.8 | 0.00 | 0.05 | 0.00 | 60 | 1018.7 |
| 20260504235304 | 29 | 158 | 3.2 | 4.8 | 0.00 | 0.05 | 0.00 | 60 | 1018.5 |
| 20260504235203 | 29 | 164 | 3.2 | 4.8 | 0.00 | 0.05 | 0.00 | 60 | 1018.5 |
| 20260504235103 | 29 | 165 | 3.2 | 4.8 | 0.00 | 0.05 | 0.00 | 60 | 1018.6 |
| 20260504235003 | 29 | 169 | 3.2 | 4.8 | 0.00 | 0.05 | 0.00 | 60 | 1018.5 |
| 20260504234903 | 29 | 172 | 3.2 | 4.8 | 0.00 | 0.05 | 0.00 | 60 | 1018.3 |
| 20260504234803 | 29 | 173 | 3.2 | 4.8 | 0.00 | 0.05 | 0.00 | 60 | 1018.5 |
| 20260504234703 | 29 | 174 | 3.2 | 4.8 | 0.00 | 0.05 | 0.00 | 60 | 1018.5 |
| 20260504234603 | 29 | 176 | 3.2 | 4.8 | 0.00 | 0.05 | 0.00 | 60 | 1018.5 |
| 20260504234524 | 29 | 178 | 3.2 | 4.8 | 0.00 | 0.05 | 0.00 | 60 | 1018.4 |
| 20260504234403 | 29 | 180 | 3.2 | 4.8 | 0.00 | 0.05 | 0.00 | 60 | 1018.5 |
| 20260504234304 | 29 | 180 | 3.2 | 4.8 | 0.00 | 0.05 | 0.00 | 60 | 1018.4 |
| 20260504234203 | 29 | 177 | 3.2 | 4.8 | 0.00 | 0.05 | 0.00 | 60 | 1018.4 |
| 20260504234105 | 29 | 178 | 3.2 | 4.8 | 0.00 | 0.05 | 0.00 | 60 | 1018.6 |
| 20260504234003 | 29 | 177 | 1.6 | 4.8 | 0.00 | 0.05 | 0.00 | 60 | 1018.4 |
| 20260504233904 | 29 | 176 | 1.6 | 4.8 | 0.00 | 0.05 | 0.00 | 60 | 1018.3 |
| 20260504233804 | 29 | 179 | 1.6 | 3.2 | 0.00 | 0.05 | 0.00 | 60 | 1018.4 |
| 20260504233703 | 29 | 179 | 1.6 | 3.2 | 0.00 | 0.05 | 0.00 | 60 | 1018.6 |
| 20260504233603 | 29 | 179 | 1.6 | 3.2 | 0.00 | 0.05 | 0.00 | 60 | 1018.4 |
| 20260504233503 | 29 | 179 | 1.6 | 3.2 | 0.00 | 0.05 | 0.00 | 60 | 1018.5 |
| 20260504233403 | 29 | 173 | 1.6 | 3.2 | 0.00 | 0.05 | 0.00 | 60 | 1018.4 |
| 20260504233303 | 29 | 171 | 0.0 | 3.2 | 0.00 | 0.05 | 0.00 | 60 | 1018.3 |
| 20260504233203 | 29 | 170 | 0.0 | 3.2 | 0.00 | 0.05 | 0.00 | 60 | 1018.5 |
| 20260504233103 | 29 | 0 | 0.0 | 0.0 | 0.00 | 0.05 | 0.00 | 60 | 1018.5 |
| 20260504233004 | 29 | 0 | 0.0 | 0.0 | 0.00 | 0.05 | 0.00 | 60 | 1018.5 |
| 20260504232903 | 29 | 0 | 0.0 | 0.0 | 0.00 | 0.05 | 0.00 | 60 | 1018.5 |
| 20260504232803 | 29 | 0 | 0.0 | 0.0 | 0.00 | 0.05 | 0.00 | 60 | 1018.6 |
| 20260504232704 | 29 | 0 | 0.0 | 0.0 | 0.00 | 0.05 | 0.00 | 60 | 1018.5 |
| 20260504232603 | 29 | 0 | 0.0 | 0.0 | 0.00 | 0.05 | 0.00 | 60 | 1018.5 |
| 20260504232504 | 29 | 0 | 0.0 | 0.0 | 0.00 | 0.05 | 0.00 | 60 | 1018.4 |
| 20260504232403 | 29 | 0 | 0.0 | 0.0 | 0.00 | 0.05 | 0.00 | 60 | 1018.4 |
| 20260504232304 | 29 | 0 | 0.0 | 0.0 | 0.00 | 0.05 | 0.00 | 60 | 1018.3 |
| 20260504232203 | 29 | 0 | 0.0 | 0.0 | 0.00 | 0.05 | 0.00 | 60 | 1018.3 |
| 20260504232103 | 29 | 0 | 0.0 | 0.0 | 0.00 | 0.05 | 0.00 | 60 | 1018.4 |
| 20260504232024 | 29 | 0 | 0.0 | 0.0 | 0.00 | 0.05 | 0.00 | 60 | 1018.5 |
| 20260504231903 | 29 | 0 | 0.0 | 0.0 | 0.00 | 0.05 | 0.00 | 60 | 1018.5 |
| 20260504231803 | 29 | 0 | 0.0 | 0.0 | 0.00 | 0.05 | 0.00 | 60 | 1018.3 |
| 20260504231703 | 29 | 0 | 0.0 | 0.0 | 0.00 | 0.05 | 0.00 | 60 | 1018.4 |
| 20260504231603 | 29 | 0 | 0.0 | 0.0 | 0.00 | 0.05 | 0.00 | 60 | 1018.4 |
| 20260504231503 | 29 | 0 | 0.0 | 0.0 | 0.00 | 0.05 | 0.00 | 60 | 1018.5 |
| 20260504231424 | 29 | 0 | 0.0 | 0.0 | 0.00 | 0.05 | 0.00 | 60 | 1018.6 |
| 20260504231303 | 29 | 0 | 0.0 | 0.0 | 0.00 | 0.05 | 0.00 | 60 | 1018.6 |
| 20260504231203 | 29 | 0 | 0.0 | 0.0 | 0.00 | 0.05 | 0.00 | 60 | 1018.6 |
| 20260504231103 | 29 | 0 | 0.0 | 0.0 | 0.00 | 0.05 | 0.00 | 60 | 1018.5 |
| 20260504231003 | 29 | 0 | 0.0 | 0.0 | 0.00 | 0.05 | 0.00 | 60 | 1018.4 |
| 20260504230905 | 29 | 0 | 0.0 | 0.0 | 0.00 | 0.05 | 0.00 | 60 | 1018.4 |
| 20260504230803 | 29 | 0 | 0.0 | 0.0 | 0.00 | 0.05 | 0.00 | 60 | 1018.5 |
| 20260504230703 | 29 | 0 | 0.0 | 0.0 | 0.00 | 0.05 | 0.00 | 60 | 1018.6 |
| 20260504230603 | 29 | 0 | 0.0 | 0.0 | 0.00 | 0.05 | 0.00 | 60 | 1018.5 |
| 20260504230503 | 29 | 0 | 0.0 | 0.0 | 0.00 | 0.05 | 0.00 | 60 | 1018.5 |
| 20260504230403 | 29 | 0 | 0.0 | 0.0 | 0.00 | 0.05 | 0.00 | 60 | 1018.6 |
| 20260504230303 | 29 | 0 | 0.0 | 0.0 | 0.00 | 0.05 | 0.00 | 60 | 1018.5 |
| 20260504230203 | 29 | 0 | 0.0 | 0.0 | 0.00 | 0.05 | 0.00 | 60 | 1018.4 |
| 20260504230103 | 29 | 0 | 0.0 | 0.0 | 0.00 | 0.05 | 0.00 | 60 | 1018.6 |
| 20260504230003 | 29 | 0 | 0.0 | 0.0 | 0.00 | 0.05 | 0.00 | 60 | 1018.7 |
| 20260504225903 | 29 | 0 | 0.0 | 0.0 | 0.00 | 0.05 | 0.00 | 60 | 1018.4 |
| 20260504225804 | 29 | 0 | 0.0 | 0.0 | 0.00 | 0.05 | 0.00 | 60 | 1018.7 |
| 20260504225725 | 29 | 0 | 0.0 | 0.0 | 0.00 | 0.05 | 0.00 | 60 | 1018.5 |
| 20260504225625 | 29 | 0 | 0.0 | 0.0 | 0.00 | 0.05 | 0.00 | 60 | 1018.4 |
| 20260504225525 | 29 | 0 | 0.0 | 0.0 | 0.00 | 0.05 | 0.00 | 60 | 1018.5 |
| 20260504225424 | 29 | 0 | 0.0 | 0.0 | 0.00 | 0.05 | 0.00 | 60 | 1018.3 |
| 20260504225304 | 29 | 0 | 0.0 | 0.0 | 0.00 | 0.05 | 0.00 | 60 | 1018.4 |
| 20260504225224 | 29 | 0 | 0.0 | 0.0 | 0.00 | 0.05 | 0.00 | 60 | 1018.5 |
| 20260504225103 | 29 | 0 | 0.0 | 0.0 | 0.00 | 0.05 | 0.00 | 60 | 1018.4 |
| 20260504225005 | 29 | 0 | 0.0 | 0.0 | 0.00 | 0.05 | 0.00 | 60 | 1018.1 |
| 20260504224903 | 29 | 0 | 0.0 | 0.0 | 0.00 | 0.05 | 0.00 | 60 | 1018.3 |
| 20260504224803 | 29 | 0 | 0.0 | 0.0 | 0.00 | 0.05 | 0.00 | 60 | 1018.4 |
| 20260504224703 | 29 | 0 | 0.0 | 0.0 | 0.00 | 0.05 | 0.00 | 60 | 1018.4 |
| 20260504224603 | 29 | 0 | 0.0 | 0.0 | 0.00 | 0.05 | 0.00 | 60 | 1018.4 |
| 20260504224503 | 29 | 0 | 0.0 | 0.0 | 0.00 | 0.05 | 0.00 | 60 | 1018.4 |
| 20260504224403 | 29 | 0 | 0.0 | 0.0 | 0.00 | 0.05 | 0.00 | 60 | 1018.4 |
| 20260504224303 | 29 | 0 | 0.0 | 0.0 | 0.00 | 0.05 | 0.00 | 60 | 1018.5 |
| 20260504224203 | 29 | 0 | 0.0 | 0.0 | 0.00 | 0.05 | 0.00 | 60 | 1018.4 |
| 20260504224103 | 29 | 0 | 0.0 | 0.0 | 0.00 | 0.05 | 0.00 | 60 | 1018.4 |
| 20260504224024 | 29 | 0 | 0.0 | 0.0 | 0.00 | 0.05 | 0.00 | 60 | 1018.4 |
| 20260504223903 | 29 | 0 | 0.0 | 0.0 | 0.00 | 0.05 | 0.00 | 60 | 1018.3 |
| 20260504223824 | 29 | 0 | 0.0 | 0.0 | 0.00 | 0.05 | 0.00 | 60 | 1018.4 |
| 20260504223703 | 29 | 0 | 0.0 | 0.0 | 0.00 | 0.05 | 0.00 | 60 | 1018.5 |
| 20260504223603 | 29 | 0 | 0.0 | 0.0 | 0.00 | 0.05 | 0.00 | 60 | 1018.5 |
| 20260504223503 | 29 | 0 | 0.0 | 0.0 | 0.00 | 0.05 | 0.00 | 60 | 1018.4 |
| 20260504223405 | 29 | 296 | 0.0 | 1.6 | 0.00 | 0.05 | 0.00 | 60 | 1018.4 |
| 20260504223303 | 29 | 296 | 0.0 | 1.6 | 0.00 | 0.05 | 0.00 | 60 | 1018.4 |
| 20260504223203 | 29 | 296 | 0.0 | 1.6 | 0.00 | 0.05 | 0.00 | 60 | 1018.4 |
| 20260504223103 | 29 | 296 | 0.0 | 1.6 | 0.00 | 0.05 | 0.00 | 60 | 1018.3 |
| 20260504223004 | 29 | 297 | 1.6 | 3.2 | 0.00 | 0.05 | 0.00 | 60 | 1018.4 |
| 20260504222903 | 29 | 297 | 1.6 | 3.2 | 0.00 | 0.05 | 0.00 | 60 | 1018.3 |
| 20260504222824 | 29 | 297 | 1.6 | 3.2 | 0.00 | 0.05 | 0.00 | 60 | 1018.5 |
| 20260504222703 | 29 | 297 | 1.6 | 3.2 | 0.00 | 0.05 | 0.00 | 60 | 1018.3 |
| 20260504222604 | 29 | 297 | 1.6 | 3.2 | 0.00 | 0.05 | 0.00 | 60 | 1018.4 |
| 20260504222504 | 29 | 297 | 1.6 | 3.2 | 0.00 | 0.05 | 0.00 | 60 | 1018.4 |
| 20260504222403 | 29 | 298 | 1.6 | 3.2 | 0.00 | 0.05 | 0.00 | 60 | 1018.3 |
| 20260504222324 | 29 | 298 | 1.6 | 3.2 | 0.00 | 0.05 | 0.00 | 60 | 1018.4 |
| 20260504222203 | 29 | 298 | 0.0 | 3.2 | 0.00 | 0.05 | 0.00 | 60 | 1018.3 |
| 20260504222103 | 29 | 299 | 0.0 | 3.2 | 0.00 | 0.05 | 0.00 | 60 | 1018.4 |
| 20260504222003 | 29 | 302 | 0.0 | 1.6 | 0.00 | 0.05 | 0.00 | 60 | 1018.4 |
| 20260504221903 | 29 | 302 | 0.0 | 1.6 | 0.00 | 0.05 | 0.00 | 60 | 1018.3 |
| 20260504221803 | 29 | 0 | 0.0 | 0.0 | 0.00 | 0.05 | 0.00 | 60 | 1018.4 |
| 20260504221705 | 29 | 0 | 0.0 | 0.0 | 0.00 | 0.05 | 0.00 | 60 | 1018.1 |
| 20260504221603 | 29 | 0 | 0.0 | 0.0 | 0.00 | 0.05 | 0.00 | 60 | 1018.3 |
| 20260504221503 | 29 | 0 | 0.0 | 0.0 | 0.00 | 0.05 | 0.00 | 60 | 1018.4 |
| 20260504221403 | 29 | 0 | 0.0 | 0.0 | 0.00 | 0.05 | 0.00 | 60 | 1018.3 |
| 20260504221303 | 29 | 0 | 0.0 | 0.0 | 0.00 | 0.05 | 0.00 | 60 | 1018.1 |
| 20260504221224 | 29 | 0 | 0.0 | 0.0 | 0.00 | 0.05 | 0.00 | 60 | 1018.4 |
| 20260504221103 | 29 | 0 | 0.0 | 0.0 | 0.00 | 0.05 | 0.00 | 60 | 1018.4 |
| 20260504221003 | 29 | 0 | 0.0 | 0.0 | 0.00 | 0.05 | 0.00 | 60 | 1018.3 |
| 20260504220903 | 29 | 0 | 0.0 | 0.0 | 0.00 | 0.05 | 0.00 | 60 | 1018.4 |
| 20260504220803 | 29 | 0 | 0.0 | 0.0 | 0.00 | 0.05 | 0.00 | 60 | 1018.5 |
| 20260504220703 | 29 | 0 | 0.0 | 0.0 | 0.00 | 0.05 | 0.00 | 60 | 1018.5 |
| 20260504220603 | 29 | 0 | 0.0 | 0.0 | 0.00 | 0.05 | 0.00 | 60 | 1018.1 |
| 20260504220524 | 29 | 0 | 0.0 | 0.0 | 0.00 | 0.05 | 0.00 | 60 | 1018.3 |
| 20260504220403 | 29 | 0 | 0.0 | 0.0 | 0.00 | 0.05 | 0.00 | 60 | 1018.1 |
| 20260504220303 | 29 | 0 | 0.0 | 0.0 | 0.00 | 0.05 | 0.00 | 60 | 1018.3 |
| 20260504220225 | 29 | 0 | 0.0 | 0.0 | 0.00 | 0.05 | 0.00 | 60 | 1018.3 |
| 20260504220124 | 29 | 0 | 0.0 | 0.0 | 0.00 | 0.05 | 0.00 | 60 | 1018.3 |
| 20260504220004 | 29 | 0 | 0.0 | 0.0 | 0.00 | 0.05 | 0.00 | 60 | 1018.4 |
| 20260504215903 | 29 | 0 | 0.0 | 0.0 | 0.00 | 0.05 | 0.00 | 60 | 1018.4 |
| 20260504215803 | 29 | 0 | 0.0 | 0.0 | 0.00 | 0.05 | 0.00 | 60 | 1018.1 |
| 20260504215703 | 29 | 0 | 0.0 | 0.0 | 0.00 | 0.05 | 0.00 | 60 | 1018.3 |
| 20260504215625 | 29 | 0 | 0.0 | 0.0 | 0.00 | 0.05 | 0.00 | 60 | 1018.3 |
| 20260504215524 | 29 | 0 | 0.0 | 0.0 | 0.00 | 0.05 | 0.00 | 60 | 1018.1 |
| 20260504215424 | 29 | 0 | 0.0 | 0.0 | 0.00 | 0.05 | 0.00 | 60 | 1018.4 |
| 20260504215324 | 29 | 0 | 0.0 | 0.0 | 0.00 | 0.05 | 0.00 | 60 | 1018.3 |
| 20260504215203 | 29 | 0 | 0.0 | 0.0 | 0.00 | 0.05 | 0.00 | 60 | 1018.4 |
| 20260504215103 | 29 | 0 | 0.0 | 0.0 | 0.00 | 0.05 | 0.00 | 60 | 1018.4 |
| 20260504215003 | 29 | 0 | 0.0 | 0.0 | 0.00 | 0.05 | 0.00 | 60 | 1018.4 |
| 20260504214903 | 29 | 0 | 0.0 | 0.0 | 0.00 | 0.05 | 0.00 | 60 | 1018.3 |
| 20260504214803 | 29 | 0 | 0.0 | 0.0 | 0.00 | 0.05 | 0.00 | 60 | 1018.3 |
| 20260504214703 | 29 | 0 | 0.0 | 0.0 | 0.00 | 0.05 | 0.00 | 60 | 1018.1 |
| 20260504214625 | 29 | 0 | 0.0 | 0.0 | 0.00 | 0.05 | 0.00 | 60 | 1018.4 |
| 20260504214503 | 29 | 0 | 0.0 | 0.0 | 0.00 | 0.05 | 0.00 | 60 | 1018.3 |
| 20260504214403 | 29 | 0 | 0.0 | 0.0 | 0.00 | 0.05 | 0.00 | 60 | 1018.3 |
| 20260504214303 | 29 | 0 | 0.0 | 0.0 | 0.00 | 0.05 | 0.00 | 60 | 1018.1 |
| 20260504214225 | 29 | 0 | 0.0 | 0.0 | 0.00 | 0.05 | 0.00 | 60 | 1018.1 |
| 20260504214124 | 29 | 0 | 0.0 | 0.0 | 0.00 | 0.05 | 0.00 | 60 | 1018.1 |
| 20260504214024 | 29 | 0 | 0.0 | 0.0 | 0.00 | 0.05 | 0.00 | 60 | 1018.3 |
| 20260504213924 | 29 | 0 | 0.0 | 0.0 | 0.00 | 0.05 | 0.00 | 60 | 1018.3 |
| 20260504213824 | 29 | 0 | 0.0 | 0.0 | 0.00 | 0.05 | 0.00 | 60 | 1018.0 |
| 20260504213724 | 29 | 0 | 0.0 | 0.0 | 0.00 | 0.05 | 0.00 | 60 | 1018.3 |
| 20260504213603 | 29 | 0 | 0.0 | 0.0 | 0.00 | 0.05 | 0.00 | 60 | 1018.1 |
| 20260504213504 | 29 | 0 | 0.0 | 0.0 | 0.00 | 0.05 | 0.00 | 60 | 1018.1 |
| 20260504213403 | 29 | 0 | 0.0 | 0.0 | 0.00 | 0.05 | 0.00 | 60 | 1018.1 |
| 20260504213303 | 29 | 0 | 0.0 | 0.0 | 0.00 | 0.05 | 0.00 | 60 | 1018.3 |
| 20260504213203 | 29 | 0 | 0.0 | 0.0 | 0.00 | 0.05 | 0.00 | 60 | 1018.1 |
| 20260504213103 | 29 | 0 | 0.0 | 0.0 | 0.00 | 0.05 | 0.00 | 60 | 1018.1 |
| 20260504213024 | 29 | 0 | 0.0 | 0.0 | 0.00 | 0.05 | 0.00 | 60 | 1018.1 |
| 20260504212903 | 29 | 0 | 0.0 | 0.0 | 0.00 | 0.05 | 0.00 | 60 | 1018.4 |
| 20260504212803 | 29 | 0 | 0.0 | 0.0 | 0.00 | 0.05 | 0.00 | 60 | 1018.1 |
| 20260504212703 | 29 | 0 | 0.0 | 0.0 | 0.00 | 0.05 | 0.00 | 60 | 1018.3 |
| 20260504212603 | 29 | 0 | 0.0 | 0.0 | 0.00 | 0.05 | 0.00 | 60 | 1018.4 |
| 20260504212524 | 29 | 0 | 0.0 | 0.0 | 0.00 | 0.05 | 0.00 | 60 | 1018.0 |
| 20260504212403 | 29 | 0 | 0.0 | 0.0 | 0.00 | 0.05 | 0.00 | 60 | 1018.1 |
| 20260504212305 | 29 | 0 | 0.0 | 0.0 | 0.00 | 0.05 | 0.00 | 60 | 1018.1 |
| 20260504212203 | 29 | 0 | 0.0 | 0.0 | 0.00 | 0.05 | 0.00 | 60 | 1017.9 |
| 20260504212125 | 29 | 0 | 0.0 | 0.0 | 0.00 | 0.05 | 0.00 | 60 | 1018.0 |
| 20260504212003 | 29 | 0 | 0.0 | 0.0 | 0.00 | 0.05 | 0.00 | 60 | 1018.1 |
| 20260504211903 | 29 | 0 | 0.0 | 0.0 | 0.00 | 0.05 | 0.00 | 60 | 1018.0 |
| 20260504211803 | 29 | 0 | 0.0 | 0.0 | 0.00 | 0.05 | 0.00 | 60 | 1018.0 |
| 20260504211703 | 29 | 0 | 0.0 | 0.0 | 0.00 | 0.05 | 0.00 | 60 | 1018.1 |
| 20260504211603 | 29 | 0 | 0.0 | 0.0 | 0.00 | 0.05 | 0.00 | 60 | 1017.8 |
| 20260504211525 | 29 | 0 | 0.0 | 0.0 | 0.00 | 0.05 | 0.00 | 60 | 1017.9 |
| 20260504211403 | 29 | 0 | 0.0 | 0.0 | 0.00 | 0.05 | 0.00 | 60 | 1017.9 |
| 20260504211303 | 29 | 278 | 0.0 | 1.6 | 0.00 | 0.05 | 0.00 | 60 | 1017.9 |
| 20260504211203 | 29 | 279 | 0.0 | 1.6 | 0.00 | 0.05 | 0.00 | 60 | 1017.9 |
| 20260504211103 | 29 | 279 | 0.0 | 1.6 | 0.00 | 0.05 | 0.00 | 60 | 1017.9 |
| 20260504211004 | 29 | 279 | 0.0 | 1.6 | 0.00 | 0.05 | 0.00 | 60 | 1017.9 |
| 20260504210903 | 29 | 280 | 0.0 | 1.6 | 0.00 | 0.05 | 0.00 | 60 | 1018.0 |
| 20260504210803 | 29 | 280 | 1.6 | 1.6 | 0.00 | 0.05 | 0.00 | 60 | 1018.0 |
| 20260504210725 | 29 | 280 | 1.6 | 1.6 | 0.00 | 0.05 | 0.00 | 60 | 1017.9 |
| 20260504210624 | 29 | 280 | 1.6 | 1.6 | 0.00 | 0.05 | 0.00 | 60 | 1018.0 |
| 20260504210504 | 29 | 278 | 1.6 | 3.2 | 0.00 | 0.05 | 0.00 | 60 | 1017.9 |
| 20260504210403 | 29 | 278 | 1.6 | 3.2 | 0.00 | 0.05 | 0.00 | 60 | 1017.8 |
| 20260504210324 | 29 | 278 | 1.6 | 3.2 | 0.00 | 0.05 | 0.00 | 60 | 1018.0 |
| 20260504210224 | 29 | 277 | 1.6 | 3.2 | 0.00 | 0.05 | 0.00 | 60 | 1017.9 |
| 20260504210004 | 29 | 277 | 1.6 | 3.2 | 0.00 | 0.05 | 0.00 | 60 | 1017.9 |
| 20260504205903 | 29 | 276 | 1.6 | 3.2 | 0.00 | 0.05 | 0.00 | 60 | 1017.9 |
| 20260504205803 | 29 | 275 | 1.6 | 3.2 | 0.00 | 0.05 | 0.00 | 60 | 1017.8 |
| 20260504205703 | 29 | 274 | 0.0 | 3.2 | 0.00 | 0.05 | 0.00 | 60 | 1017.8 |
| 20260504205603 | 29 | 269 | 0.0 | 3.2 | 0.00 | 0.05 | 0.00 | 60 | 1017.9 |
| 20260504205503 | 29 | 256 | 0.0 | 3.2 | 0.00 | 0.05 | 0.00 | 60 | 1017.8 |
| 20260504205403 | 29 | 239 | 0.0 | 1.6 | 0.00 | 0.05 | 0.00 | 60 | 1017.7 |
| 20260504205304 | 29 | 240 | 0.0 | 1.6 | 0.00 | 0.05 | 0.00 | 60 | 1017.7 |
| 20260504205203 | 29 | 237 | 0.0 | 1.6 | 0.00 | 0.05 | 0.00 | 60 | 1017.8 |
| 20260504205104 | 29 | 233 | 1.6 | 3.2 | 0.00 | 0.05 | 0.00 | 60 | 1017.9 |
| 20260504205024 | 29 | 234 | 1.6 | 3.2 | 0.00 | 0.05 | 0.00 | 60 | 1017.9 |
| 20260504204904 | 29 | 233 | 1.6 | 3.2 | 0.00 | 0.05 | 0.00 | 60 | 1018.0 |
| 20260504204803 | 29 | 234 | 1.6 | 3.2 | 0.00 | 0.05 | 0.00 | 60 | 1017.9 |
| 20260504204704 | 29 | 234 | 1.6 | 3.2 | 0.00 | 0.05 | 0.00 | 60 | 1017.9 |
| 20260504204603 | 29 | 231 | 1.6 | 3.2 | 0.00 | 0.05 | 0.00 | 60 | 1018.0 |
| 20260504204524 | 29 | 230 | 1.6 | 3.2 | 0.00 | 0.05 | 0.00 | 60 | 1017.9 |
| 20260504204403 | 29 | 226 | 1.6 | 3.2 | 0.00 | 0.05 | 0.00 | 60 | 1017.9 |
| 20260504204303 | 29 | 224 | 1.6 | 3.2 | 0.00 | 0.05 | 0.00 | 60 | 1018.0 |
| 20260504204203 | 29 | 221 | 1.6 | 3.2 | 0.00 | 0.05 | 0.00 | 60 | 1017.8 |
| 20260504204103 | 29 | 221 | 1.6 | 3.2 | 0.00 | 0.05 | 0.00 | 60 | 1017.9 |
| 20260504204003 | 29 | 219 | 3.2 | 4.8 | 0.00 | 0.05 | 0.00 | 60 | 1017.9 |
| 20260504203903 | 29 | 211 | 3.2 | 4.8 | 0.00 | 0.05 | 0.00 | 60 | 1018.1 |
| 20260504203803 | 29 | 202 | 3.2 | 4.8 | 0.00 | 0.05 | 0.00 | 60 | 1018.0 |
| 20260504203703 | 29 | 196 | 3.2 | 4.8 | 0.00 | 0.05 | 0.00 | 60 | 1018.1 |
| 20260504203603 | 29 | 193 | 3.2 | 4.8 | 0.00 | 0.05 | 0.00 | 60 | 1018.3 |
| 20260504203524 | 29 | 191 | 3.2 | 4.8 | 0.00 | 0.05 | 0.00 | 60 | 1018.0 |
| 20260504203403 | 29 | 182 | 3.2 | 4.8 | 0.00 | 0.05 | 0.00 | 60 | 1018.3 |
| 20260504203303 | 29 | 174 | 3.2 | 4.8 | 0.00 | 0.05 | 0.00 | 60 | 1018.0 |
| 20260504203203 | 29 | 161 | 3.2 | 4.8 | 0.00 | 0.05 | 0.00 | 60 | 1018.1 |
| 20260504203105 | 29 | 157 | 3.2 | 4.8 | 0.00 | 0.05 | 0.00 | 60 | 1018.1 |
| 20260504203003 | 29 | 148 | 3.2 | 4.8 | 0.00 | 0.05 | 0.00 | 60 | 1018.3 |
| 20260504202904 | 29 | 144 | 1.6 | 4.8 | 0.00 | 0.05 | 0.00 | 60 | 1018.1 |
| 20260504202803 | 29 | 138 | 1.6 | 4.8 | 0.00 | 0.05 | 0.00 | 60 | 1018.1 |
| 20260504202724 | 29 | 135 | 1.6 | 4.8 | 0.00 | 0.05 | 0.00 | 60 | 1018.0 |
| 20260504202603 | 29 | 130 | 1.6 | 4.8 | 0.00 | 0.05 | 0.00 | 60 | 1018.1 |
| 20260504202503 | 29 | 124 | 1.6 | 4.8 | 0.00 | 0.05 | 0.00 | 60 | 1018.1 |
| 20260504202403 | 29 | 114 | 1.6 | 3.2 | 0.00 | 0.05 | 0.00 | 60 | 1018.1 |
| 20260504202304 | 29 | 111 | 0.0 | 3.2 | 0.00 | 0.05 | 0.00 | 60 | 1018.0 |
| 20260504202203 | 29 | 104 | 0.0 | 3.2 | 0.00 | 0.05 | 0.00 | 60 | 1018.1 |
| 20260504202103 | 29 | 0 | 0.0 | 0.0 | 0.00 | 0.05 | 0.00 | 60 | 1018.0 |
| 20260504202024 | 29 | 0 | 0.0 | 0.0 | 0.00 | 0.05 | 0.00 | 60 | 1018.0 |
| 20260504201903 | 29 | 0 | 0.0 | 0.0 | 0.00 | 0.05 | 0.00 | 60 | 1017.9 |
| 20260504201803 | 29 | 0 | 0.0 | 0.0 | 0.00 | 0.05 | 0.00 | 60 | 1017.9 |
| 20260504201703 | 29 | 0 | 0.0 | 0.0 | 0.00 | 0.05 | 0.00 | 60 | 1018.1 |
| 20260504201603 | 29 | 0 | 0.0 | 0.0 | 0.00 | 0.05 | 0.00 | 60 | 1018.1 |
| 20260504201524 | 29 | 0 | 0.0 | 0.0 | 0.00 | 0.05 | 0.00 | 60 | 1018.0 |
| 20260504201403 | 29 | 0 | 0.0 | 0.0 | 0.00 | 0.05 | 0.00 | 60 | 1018.0 |
| 20260504201303 | 29 | 0 | 0.0 | 0.0 | 0.00 | 0.05 | 0.00 | 60 | 1018.1 |
| 20260504201224 | 29 | 0 | 0.0 | 0.0 | 0.00 | 0.05 | 0.00 | 60 | 1018.0 |
| 20260504201104 | 29 | 0 | 0.0 | 0.0 | 0.00 | 0.05 | 0.00 | 60 | 1018.0 |
| 20260504201005 | 29 | 0 | 0.0 | 0.0 | 0.00 | 0.05 | 0.00 | 60 | 1018.0 |
| 20260504200903 | 29 | 0 | 0.0 | 0.0 | 0.00 | 0.05 | 0.00 | 60 | 1018.1 |
| 20260504200803 | 29 | 0 | 0.0 | 0.0 | 0.00 | 0.05 | 0.00 | 60 | 1018.0 |
| 20260504200703 | 29 | 0 | 0.0 | 0.0 | 0.00 | 0.05 | 0.00 | 60 | 1018.0 |
| 20260504200603 | 29 | 0 | 0.0 | 0.0 | 0.00 | 0.05 | 0.00 | 60 | 1018.0 |
| 20260504200503 | 29 | 0 | 0.0 | 0.0 | 0.00 | 0.05 | 0.00 | 60 | 1018.0 |
| 20260504200403 | 29 | 0 | 0.0 | 0.0 | 0.00 | 0.05 | 0.00 | 60 | 1018.0 |
| 20260504200303 | 29 | 0 | 0.0 | 0.0 | 0.00 | 0.05 | 0.00 | 60 | 1017.9 |
| 20260504200203 | 29 | 0 | 0.0 | 0.0 | 0.00 | 0.05 | 0.00 | 60 | 1018.0 |
| 20260504200103 | 29 | 0 | 0.0 | 0.0 | 0.00 | 0.05 | 0.00 | 60 | 1018.0 |
| 20260504200004 | 29 | 0 | 0.0 | 0.0 | 0.00 | 0.05 | 0.00 | 60 | 1018.1 |
| 20260504195903 | 29 | 0 | 0.0 | 0.0 | 0.00 | 0.05 | 0.00 | 60 | 1018.3 |
| 20260504195803 | 29 | 0 | 0.0 | 0.0 | 0.00 | 0.05 | 0.00 | 60 | 1018.0 |
| 20260504195703 | 29 | 0 | 0.0 | 0.0 | 0.00 | 0.05 | 0.00 | 60 | 1018.0 |
| 20260504195625 | 29 | 0 | 0.0 | 0.0 | 0.00 | 0.05 | 0.00 | 60 | 1018.0 |
| 20260504195503 | 29 | 0 | 0.0 | 0.0 | 0.00 | 0.05 | 0.00 | 60 | 1018.0 |
| 20260504195403 | 29 | 0 | 0.0 | 0.0 | 0.00 | 0.05 | 0.00 | 60 | 1018.0 |
| 20260504195304 | 29 | 0 | 0.0 | 0.0 | 0.00 | 0.05 | 0.00 | 60 | 1018.1 |
| 20260504195224 | 29 | 0 | 0.0 | 0.0 | 0.00 | 0.05 | 0.00 | 60 | 1018.1 |
| 20260504195103 | 29 | 0 | 0.0 | 0.0 | 0.00 | 0.05 | 0.00 | 60 | 1018.0 |
| 20260504195003 | 29 | 0 | 0.0 | 0.0 | 0.00 | 0.05 | 0.00 | 60 | 1018.0 |
| 20260504194903 | 29 | 0 | 0.0 | 0.0 | 0.00 | 0.05 | 0.00 | 60 | 1018.1 |
| 20260504194824 | 29 | 0 | 0.0 | 0.0 | 0.00 | 0.05 | 0.00 | 60 | 1018.1 |
| 20260504194724 | 29 | 0 | 0.0 | 0.0 | 0.00 | 0.05 | 0.00 | 60 | 1018.1 |
| 20260504194603 | 29 | 0 | 0.0 | 0.0 | 0.00 | 0.05 | 0.00 | 60 | 1018.4 |
| 20260504194503 | 29 | 0 | 0.0 | 0.0 | 0.00 | 0.05 | 0.00 | 60 | 1018.0 |
| 20260504194403 | 29 | 0 | 0.0 | 0.0 | 0.00 | 0.05 | 0.00 | 60 | 1018.3 |
| 20260504194303 | 29 | 0 | 0.0 | 0.0 | 0.00 | 0.05 | 0.00 | 60 | 1018.0 |
| 20260504194203 | 29 | 0 | 0.0 | 0.0 | 0.00 | 0.05 | 0.00 | 60 | 1018.1 |
| 20260504194103 | 29 | 0 | 0.0 | 0.0 | 0.00 | 0.05 | 0.00 | 60 | 1018.1 |
| 20260504194024 | 29 | 0 | 0.0 | 0.0 | 0.00 | 0.05 | 0.00 | 60 | 1018.3 |
| 20260504193903 | 29 | 0 | 0.0 | 0.0 | 0.00 | 0.05 | 0.00 | 60 | 1018.1 |
| 20260504193804 | 29 | 0 | 0.0 | 0.0 | 0.00 | 0.05 | 0.00 | 60 | 1018.1 |
| 20260504193703 | 29 | 0 | 0.0 | 0.0 | 0.00 | 0.05 | 0.00 | 60 | 1018.1 |
| 20260504193605 | 29 | 0 | 0.0 | 0.0 | 0.00 | 0.05 | 0.00 | 60 | 1018.1 |
| 20260504193503 | 29 | 266 | 0.0 | 1.6 | 0.00 | 0.05 | 0.00 | 60 | 1018.1 |
| 20260504193403 | 29 | 222 | 0.0 | 3.2 | 0.00 | 0.05 | 0.00 | 60 | 1018.3 |
| 20260504193304 | 29 | 222 | 0.0 | 3.2 | 0.00 | 0.05 | 0.00 | 60 | 1018.1 |
| 20260504193203 | 29 | 235 | 0.0 | 3.2 | 0.00 | 0.05 | 0.00 | 60 | 1018.0 |
| 20260504193124 | 29 | 247 | 0.0 | 3.2 | 0.00 | 0.05 | 0.00 | 60 | 1018.0 |
| 20260504193025 | 29 | 260 | 1.6 | 4.8 | 0.00 | 0.05 | 0.00 | 60 | 1018.0 |
| 20260504192903 | 29 | 265 | 1.6 | 4.8 | 0.00 | 0.05 | 0.00 | 60 | 1017.9 |
| 20260504192803 | 29 | 267 | 1.6 | 4.8 | 0.00 | 0.05 | 0.00 | 60 | 1018.3 |
| 20260504192724 | 29 | 267 | 1.6 | 4.8 | 0.00 | 0.05 | 0.00 | 60 | 1018.1 |
| 20260504192603 | 29 | 268 | 3.2 | 4.8 | 0.00 | 0.05 | 0.00 | 60 | 1018.3 |
| 20260504192504 | 29 | 268 | 3.2 | 4.8 | 0.00 | 0.05 | 0.00 | 60 | 1018.1 |
| 20260504192403 | 29 | 270 | 3.2 | 4.8 | 0.00 | 0.05 | 0.00 | 60 | 1018.3 |
| 20260504192304 | 29 | 269 | 3.2 | 4.8 | 0.00 | 0.05 | 0.00 | 60 | 1018.3 |
| 20260504192224 | 29 | 267 | 3.2 | 4.8 | 0.00 | 0.05 | 0.00 | 60 | 1018.1 |
| 20260504192124 | 29 | 265 | 3.2 | 4.8 | 0.00 | 0.05 | 0.00 | 60 | 1018.1 |
| 20260504192004 | 29 | 260 | 3.2 | 4.8 | 0.00 | 0.05 | 0.00 | 60 | 1018.1 |
| 20260504191925 | 29 | 260 | 3.2 | 4.8 | 0.00 | 0.05 | 0.00 | 60 | 1018.0 |
| 20260504191803 | 29 | 257 | 1.6 | 4.8 | 0.00 | 0.05 | 0.00 | 60 | 1018.3 |
| 20260504191725 | 29 | 252 | 1.6 | 4.8 | 0.00 | 0.05 | 0.00 | 60 | 1018.1 |
| 20260504191604 | 29 | 242 | 1.6 | 3.2 | 0.00 | 0.05 | 0.00 | 60 | 1018.3 |
| 20260504191504 | 29 | 234 | 1.6 | 3.2 | 0.00 | 0.05 | 0.00 | 60 | 1018.3 |
| 20260504191403 | 29 | 224 | 1.6 | 3.2 | 0.00 | 0.05 | 0.00 | 60 | 1018.1 |
| 20260504191303 | 29 | 220 | 1.6 | 3.2 | 0.00 | 0.05 | 0.00 | 60 | 1018.3 |
| 20260504191204 | 29 | 216 | 1.6 | 3.2 | 0.00 | 0.05 | 0.00 | 60 | 1018.3 |
| 20260504191103 | 29 | 216 | 1.6 | 3.2 | 0.00 | 0.05 | 0.00 | 60 | 1018.3 |
| 20260504191004 | 29 | 212 | 1.6 | 3.2 | 0.00 | 0.05 | 0.00 | 60 | 1018.3 |
| 20260504190903 | 29 | 209 | 1.6 | 3.2 | 0.00 | 0.05 | 0.00 | 60 | 1018.1 |
| 20260504190803 | 29 | 207 | 1.6 | 3.2 | 0.00 | 0.05 | 0.00 | 60 | 1018.4 |
| 20260504190724 | 29 | 202 | 1.6 | 3.2 | 0.00 | 0.05 | 0.00 | 60 | 1018.4 |
| 20260504190624 | 29 | 196 | 3.2 | 3.2 | 0.00 | 0.05 | 0.00 | 60 | 1018.5 |
| 20260504190524 | 29 | 193 | 3.2 | 3.2 | 0.00 | 0.05 | 0.00 | 60 | 1018.5 |
| 20260504190403 | 29 | 190 | 3.2 | 3.2 | 0.00 | 0.05 | 0.00 | 60 | 1018.4 |
| 20260504190303 | 29 | 188 | 1.6 | 3.2 | 0.00 | 0.05 | 0.00 | 60 | 1018.5 |
| 20260504190203 | 29 | 186 | 1.6 | 3.2 | 0.00 | 0.05 | 0.00 | 60 | 1018.5 |
| 20260504190103 | 29 | 184 | 1.6 | 3.2 | 0.00 | 0.05 | 0.00 | 60 | 1018.5 |
| 20260504190004 | 29 | 181 | 1.6 | 3.2 | 0.00 | 0.05 | 0.00 | 60 | 1018.5 |
| 20260504185925 | 29 | 181 | 1.6 | 3.2 | 0.00 | 0.05 | 0.00 | 60 | 1018.5 |
| 20260504185804 | 29 | 186 | 1.6 | 3.2 | 0.00 | 0.05 | 0.00 | 60 | 1018.4 |
| 20260504185704 | 29 | 192 | 1.6 | 3.2 | 0.00 | 0.05 | 0.00 | 60 | 1018.6 |
| 20260504185604 | 29 | 199 | 1.6 | 3.2 | 0.00 | 0.05 | 0.00 | 60 | 1018.5 |
| 20260504185504 | 29 | 202 | 1.6 | 3.2 | 0.00 | 0.05 | 0.00 | 60 | 1018.4 |
| 20260504185404 | 29 | 201 | 1.6 | 3.2 | 0.00 | 0.05 | 0.00 | 60 | 1018.6 |
| 20260504185304 | 29 | 202 | 1.6 | 3.2 | 0.00 | 0.05 | 0.00 | 60 | 1018.6 |
| 20260504185203 | 29 | 203 | 1.6 | 3.2 | 0.00 | 0.05 | 0.00 | 60 | 1018.5 |
| 20260504185124 | 29 | 203 | 1.6 | 3.2 | 0.00 | 0.05 | 0.00 | 60 | 1018.5 |
| 20260504185003 | 29 | 205 | 1.6 | 3.2 | 0.00 | 0.05 | 0.00 | 60 | 1018.6 |
| 20260504184903 | 29 | 209 | 1.6 | 3.2 | 0.00 | 0.05 | 0.00 | 60 | 1018.7 |
| 20260504184803 | 29 | 211 | 0.0 | 3.2 | 0.00 | 0.05 | 0.00 | 60 | 1018.4 |
| 20260504184703 | 29 | 206 | 0.0 | 3.2 | 0.00 | 0.05 | 0.00 | 60 | 1018.4 |
| 20260504184604 | 29 | 202 | 0.0 | 3.2 | 0.00 | 0.05 | 0.00 | 60 | 1018.4 |
| 20260504184525 | 29 | 198 | 0.0 | 3.2 | 0.00 | 0.05 | 0.00 | 60 | 1018.3 |
| 20260504184424 | 29 | 198 | 0.0 | 3.2 | 0.00 | 0.05 | 0.00 | 60 | 1018.5 |
| 20260504184303 | 29 | 198 | 0.0 | 3.2 | 0.00 | 0.05 | 0.00 | 60 | 1018.3 |
| 20260504184204 | 29 | 196 | 0.0 | 3.2 | 0.00 | 0.05 | 0.00 | 60 | 1018.4 |
| 20260504184103 | 29 | 196 | 0.0 | 3.2 | 0.00 | 0.05 | 0.00 | 60 | 1018.5 |
| 20260504184005 | 29 | 0 | 0.0 | 0.0 | 0.00 | 0.05 | 0.00 | 60 | 1018.5 |
| 20260504183703 | 29 | 0 | 0.0 | 0.0 | 0.00 | 0.05 | 0.00 | 60 | 1018.4 |
| 20260504183603 | 29 | 0 | 0.0 | 0.0 | 0.00 | 0.05 | 0.00 | 60 | 1018.5 |
| 20260504183503 | 29 | 0 | 0.0 | 0.0 | 0.00 | 0.05 | 0.00 | 60 | 1018.4 |
| 20260504183424 | 29 | 0 | 0.0 | 0.0 | 0.00 | 0.05 | 0.00 | 60 | 1018.4 |
| 20260504183325 | 29 | 0 | 0.0 | 0.0 | 0.00 | 0.05 | 0.00 | 60 | 1018.4 |
| 20260504183204 | 29 | 0 | 0.0 | 0.0 | 0.00 | 0.05 | 0.00 | 60 | 1018.6 |
| 20260504183103 | 29 | 0 | 0.0 | 0.0 | 0.00 | 0.05 | 0.00 | 60 | 1018.5 |
| 20260504183004 | 29 | 0 | 0.0 | 0.0 | 0.00 | 0.05 | 0.00 | 60 | 1018.5 |
| 20260504182904 | 29 | 0 | 0.0 | 0.0 | 0.00 | 0.05 | 0.05 | 60 | 1018.5 |
| 20260504182803 | 29 | 0 | 0.0 | 0.0 | 0.00 | 0.05 | 0.05 | 60 | 1018.5 |
| 20260504182703 | 29 | 0 | 0.0 | 0.0 | 0.00 | 0.05 | 0.05 | 60 | 1018.4 |
| 20260504182604 | 29 | 0 | 0.0 | 0.0 | 0.00 | 0.05 | 0.05 | 60 | 1018.4 |
| 20260504182503 | 29 | 0 | 0.0 | 0.0 | 0.00 | 0.05 | 0.05 | 60 | 1018.5 |
| 20260504182403 | 29 | 0 | 0.0 | 0.0 | 0.00 | 0.05 | 0.05 | 60 | 1018.5 |
| 20260504182304 | 29 | 0 | 0.0 | 0.0 | 0.00 | 0.05 | 0.05 | 60 | 1018.6 |
| 20260504182205 | 29 | 0 | 0.0 | 0.0 | 0.00 | 0.05 | 0.05 | 60 | 1018.4 |
| 20260504182103 | 29 | 0 | 0.0 | 0.0 | 0.00 | 0.05 | 0.05 | 60 | 1018.4 |
| 20260504182003 | 29 | 0 | 0.0 | 0.0 | 0.00 | 0.05 | 0.05 | 60 | 1018.5 |
| 20260504181903 | 29 | 0 | 0.0 | 0.0 | 0.00 | 0.05 | 0.05 | 60 | 1018.4 |
| 20260504181804 | 29 | 0 | 0.0 | 0.0 | 0.00 | 0.05 | 0.05 | 60 | 1018.4 |
| 20260504181725 | 29 | 0 | 0.0 | 0.0 | 0.00 | 0.05 | 0.05 | 60 | 1018.3 |
| 20260504181603 | 29 | 0 | 0.0 | 0.0 | 0.00 | 0.05 | 0.05 | 60 | 1018.4 |
| 20260504181503 | 29 | 196 | 0.0 | 3.2 | 0.00 | 0.05 | 0.05 | 60 | 1018.4 |
| 20260504181403 | 29 | 187 | 0.0 | 3.2 | 0.00 | 0.05 | 0.05 | 60 | 1018.4 |
| 20260504181303 | 29 | 184 | 0.0 | 3.2 | 0.00 | 0.05 | 0.05 | 60 | 1018.5 |
| 20260504181204 | 29 | 177 | 0.0 | 3.2 | 0.00 | 0.05 | 0.05 | 60 | 1018.4 |
| 20260504181103 | 29 | 173 | 1.6 | 3.2 | 0.00 | 0.05 | 0.05 | 60 | 1018.6 |
| 20260504181004 | 29 | 172 | 1.6 | 3.2 | 0.00 | 0.05 | 0.05 | 60 | 1018.5 |
| 20260504180903 | 29 | 171 | 1.6 | 3.2 | 0.00 | 0.05 | 0.05 | 60 | 1018.5 |
| 20260504180824 | 29 | 170 | 1.6 | 3.2 | 0.00 | 0.05 | 0.05 | 60 | 1018.5 |
| 20260504180704 | 29 | 169 | 1.6 | 3.2 | 0.00 | 0.05 | 0.05 | 60 | 1018.5 |
| 20260504180624 | 29 | 169 | 1.6 | 3.2 | 0.00 | 0.05 | 0.05 | 60 | 1018.5 |
| 20260504180505 | 29 | 159 | 3.2 | 3.2 | 0.00 | 0.05 | 0.05 | 60 | 1018.6 |
| 20260504180424 | 29 | 156 | 3.2 | 3.2 | 0.00 | 0.05 | 0.05 | 60 | 1018.4 |
| 20260504180304 | 29 | 151 | 3.2 | 3.2 | 0.00 | 0.05 | 0.05 | 60 | 1018.5 |
| 20260504180203 | 29 | 150 | 3.2 | 3.2 | 0.00 | 0.05 | 0.05 | 60 | 1018.4 |
| 20260504180104 | 29 | 149 | 1.6 | 3.2 | 0.00 | 0.05 | 0.05 | 60 | 1018.5 |
| 20260504180004 | 29 | 147 | 1.6 | 3.2 | 0.00 | 0.05 | 0.05 | 60 | 1018.7 |
| 20260504175903 | 29 | 145 | 1.6 | 3.2 | 0.00 | 0.05 | 0.05 | 60 | 1018.6 |
| 20260504175803 | 29 | 141 | 1.6 | 3.2 | 0.00 | 0.05 | 0.05 | 60 | 1018.6 |
| 20260504175704 | 29 | 136 | 1.6 | 3.2 | 0.00 | 0.05 | 0.05 | 60 | 1018.6 |
| 20260504175603 | 29 | 121 | 1.6 | 3.2 | 0.00 | 0.05 | 0.05 | 60 | 1018.8 |
| 20260504175504 | 29 | 115 | 0.0 | 3.2 | 0.00 | 0.05 | 0.05 | 60 | 1018.6 |
| 20260504175404 | 29 | 106 | 0.0 | 3.2 | 0.00 | 0.05 | 0.05 | 60 | 1018.6 |
| 20260504175304 | 29 | 0 | 0.0 | 0.0 | 0.00 | 0.05 | 0.05 | 60 | 1018.6 |
| 20260504175204 | 29 | 0 | 0.0 | 0.0 | 0.00 | 0.05 | 0.05 | 60 | 1018.4 |
| 20260504175103 | 29 | 0 | 0.0 | 0.0 | 0.00 | 0.05 | 0.05 | 60 | 1018.6 |
| 20260504175003 | 29 | 0 | 0.0 | 0.0 | 0.00 | 0.05 | 0.05 | 60 | 1018.5 |
| 20260504174924 | 29 | 0 | 0.0 | 0.0 | 0.00 | 0.05 | 0.05 | 60 | 1018.6 |
| 20260504174826 | 29 | 0 | 0.0 | 0.0 | 0.00 | 0.05 | 0.05 | 60 | 1018.6 |
| 20260504174703 | 29 | 0 | 0.0 | 0.0 | 0.00 | 0.05 | 0.05 | 60 | 1018.4 |
| 20260504174603 | 29 | 0 | 0.0 | 0.0 | 0.00 | 0.05 | 0.05 | 60 | 1018.5 |
| 20260504174525 | 29 | 0 | 0.0 | 0.0 | 0.00 | 0.05 | 0.05 | 60 | 1018.4 |
| 20260504174403 | 29 | 0 | 0.0 | 0.0 | 0.00 | 0.05 | 0.05 | 60 | 1018.4 |
| 20260504174304 | 29 | 0 | 0.0 | 0.0 | 0.00 | 0.05 | 0.05 | 60 | 1018.4 |
| 20260504174224 | 29 | 0 | 0.0 | 0.0 | 0.00 | 0.05 | 0.05 | 60 | 1018.6 |
| 20260504174103 | 29 | 0 | 0.0 | 0.0 | 0.00 | 0.05 | 0.05 | 60 | 1018.5 |
| 20260504174003 | 29 | 0 | 0.0 | 0.0 | 0.00 | 0.05 | 0.05 | 60 | 1018.5 |
| 20260504173903 | 29 | 0 | 0.0 | 0.0 | 0.00 | 0.05 | 0.05 | 60 | 1018.6 |
| 20260504173803 | 29 | 0 | 0.0 | 0.0 | 0.00 | 0.05 | 0.05 | 60 | 1018.5 |
| 20260504173724 | 29 | 0 | 0.0 | 0.0 | 0.00 | 0.05 | 0.05 | 60 | 1018.7 |
| 20260504173603 | 29 | 0 | 0.0 | 0.0 | 0.00 | 0.05 | 0.05 | 60 | 1018.5 |
| 20260504173503 | 29 | 0 | 0.0 | 0.0 | 0.00 | 0.05 | 0.05 | 60 | 1018.7 |
| 20260504173403 | 29 | 0 | 0.0 | 0.0 | 0.00 | 0.05 | 0.05 | 60 | 1018.7 |
| 20260504173304 | 29 | 281 | 0.0 | 1.6 | 0.00 | 0.05 | 0.05 | 60 | 1018.8 |
| 20260504173203 | 29 | 280 | 0.0 | 1.6 | 0.00 | 0.05 | 0.05 | 60 | 1018.8 |
| 20260504173103 | 29 | 280 | 0.0 | 1.6 | 0.00 | 0.05 | 0.05 | 60 | 1018.7 |
| 20260504173005 | 29 | 280 | 0.0 | 1.6 | 0.00 | 0.05 | 0.05 | 60 | 1018.5 |
| 20260504172904 | 29 | 280 | 0.0 | 1.6 | 0.00 | 0.05 | 0.05 | 60 | 1018.6 |
| 20260504172804 | 29 | 279 | 0.0 | 1.6 | 0.00 | 0.05 | 0.05 | 60 | 1018.8 |
| 20260504172703 | 29 | 279 | 0.0 | 1.6 | 0.00 | 0.05 | 0.05 | 60 | 1018.7 |
| 20260504172603 | 29 | 279 | 0.0 | 1.6 | 0.00 | 0.05 | 0.05 | 60 | 1018.6 |
| 20260504172504 | 29 | 279 | 0.0 | 1.6 | 0.00 | 0.05 | 0.05 | 60 | 1018.5 |
| 20260504172403 | 29 | 279 | 0.0 | 1.6 | 0.00 | 0.05 | 0.05 | 60 | 1018.6 |
| 20260504172304 | 29 | 279 | 0.0 | 1.6 | 0.00 | 0.05 | 0.05 | 60 | 1018.6 |
| 20260504172203 | 29 | 279 | 0.0 | 1.6 | 0.00 | 0.05 | 0.05 | 60 | 1018.7 |
| 20260504172124 | 29 | 278 | 0.0 | 3.2 | 0.00 | 0.05 | 0.05 | 60 | 1018.8 |
| 20260504172024 | 29 | 274 | 0.0 | 3.2 | 0.00 | 0.05 | 0.05 | 60 | 1018.8 |
| 20260504171904 | 29 | 270 | 1.6 | 3.2 | 0.00 | 0.05 | 0.05 | 60 | 1018.8 |
| 20260504171824 | 29 | 270 | 1.6 | 3.2 | 0.00 | 0.05 | 0.05 | 60 | 1018.8 |
| 20260504171703 | 29 | 264 | 1.6 | 3.2 | 0.00 | 0.05 | 0.05 | 60 | 1018.6 |
| 20260504171603 | 29 | 265 | 1.6 | 3.2 | 0.00 | 0.05 | 0.05 | 60 | 1018.6 |
| 20260504171504 | 29 | 265 | 1.6 | 3.2 | 0.00 | 0.05 | 0.05 | 60 | 1018.8 |
| 20260504171403 | 29 | 260 | 1.6 | 3.2 | 0.00 | 0.05 | 0.05 | 60 | 1018.9 |
| 20260504171305 | 29 | 257 | 1.6 | 3.2 | 0.00 | 0.05 | 0.05 | 60 | 1018.6 |
| 20260504171203 | 29 | 253 | 1.6 | 4.8 | 0.00 | 0.05 | 0.05 | 60 | 1018.9 |
| 20260504171103 | 29 | 250 | 1.6 | 4.8 | 0.00 | 0.05 | 0.05 | 60 | 1018.9 |
| 20260504171004 | 29 | 243 | 1.6 | 4.8 | 0.00 | 0.05 | 0.05 | 60 | 1018.9 |
| 20260504170903 | 29 | 234 | 1.6 | 4.8 | 0.00 | 0.05 | 0.05 | 60 | 1018.9 |
| 20260504170804 | 29 | 230 | 3.2 | 4.8 | 0.00 | 0.05 | 0.05 | 60 | 1018.7 |
| 20260504170703 | 29 | 230 | 1.6 | 4.8 | 0.00 | 0.05 | 0.05 | 60 | 1018.8 |
| 20260504170603 | 29 | 226 | 1.6 | 4.8 | 0.00 | 0.05 | 0.05 | 60 | 1018.7 |
| 20260504170503 | 29 | 217 | 1.6 | 4.8 | 0.00 | 0.05 | 0.05 | 60 | 1018.9 |
| 20260504170403 | 29 | 204 | 1.6 | 4.8 | 0.00 | 0.05 | 0.05 | 60 | 1018.8 |
| 20260504170304 | 29 | 193 | 1.6 | 4.8 | 0.00 | 0.05 | 0.05 | 60 | 1018.9 |
| 20260504170203 | 29 | 175 | 3.2 | 4.8 | 0.00 | 0.05 | 0.05 | 60 | 1018.8 |
| 20260504160403 | 29 | 316 | 0.0 | 3.2 | 0.00 | 0.05 | 0.05 | 60 | 1018.7 |
| 20260504160304 | 29 | 355 | 0.0 | 1.6 | 0.00 | 0.05 | 0.05 | 60 | 1018.7 |
| 20260504160203 | 29 | 44 | 0.0 | 1.6 | 0.00 | 0.05 | 0.05 | 60 | 1018.7 |
| 20260504160103 | 29 | 58 | 0.0 | 1.6 | 0.00 | 0.05 | 0.05 | 60 | 1018.6 |
| 20260504151103 | 29 | 0 | 0.0 | 0.0 | 0.00 | 0.05 | 0.05 | 60 | 1018.3 |
| 20260504151003 | 29 | 284 | 0.0 | 1.6 | 0.00 | 0.05 | 0.05 | 60 | 1018.3 |
| 20260504150903 | 29 | 283 | 0.0 | 1.6 | 0.00 | 0.05 | 0.05 | 60 | 1018.1 |
| 20260504150803 | 29 | 283 | 0.0 | 3.2 | 0.00 | 0.05 | 0.05 | 60 | 1018.0 |
| 20260504150724 | 29 | 284 | 1.6 | 3.2 | 0.00 | 0.05 | 0.05 | 60 | 1018.0 |
| 20260504150624 | 29 | 285 | 1.6 | 3.2 | 0.00 | 0.05 | 0.05 | 60 | 1018.1 |
| 20260504150504 | 29 | 286 | 1.6 | 3.2 | 0.00 | 0.05 | 0.05 | 60 | 1018.0 |
| 20260504150403 | 29 | 287 | 1.6 | 3.2 | 0.00 | 0.05 | 0.05 | 60 | 1018.0 |
| 20260504150303 | 29 | 287 | 1.6 | 3.2 | 0.00 | 0.05 | 0.05 | 60 | 1018.1 |
| 20260504150203 | 29 | 287 | 1.6 | 3.2 | 0.00 | 0.05 | 0.05 | 60 | 1018.0 |
| 20260504150103 | 29 | 288 | 1.6 | 3.2 | 0.00 | 0.05 | 0.05 | 60 | 1018.1 |
| 20260504141324 | 29 | 293 | 1.6 | 3.2 | 0.00 | 0.05 | 0.05 | 60 | 1017.4 |
| 20260504141203 | 29 | 293 | 1.6 | 3.2 | 0.00 | 0.05 | 0.05 | 60 | 1017.4 |
| 20260504141125 | 29 | 292 | 1.6 | 3.2 | 0.00 | 0.05 | 0.05 | 60 | 1017.3 |
| 20260504141024 | 29 | 291 | 1.6 | 3.2 | 0.00 | 0.05 | 0.05 | 60 | 1017.4 |
| 20260504140903 | 29 | 292 | 1.6 | 3.2 | 0.00 | 0.05 | 0.05 | 60 | 1017.4 |
| 20260504140803 | 29 | 291 | 1.6 | 3.2 | 0.00 | 0.05 | 0.05 | 60 | 1017.3 |
| 20260504140703 | 29 | 290 | 1.6 | 3.2 | 0.00 | 0.05 | 0.05 | 60 | 1017.3 |
| 20260504140603 | 29 | 288 | 1.6 | 3.2 | 0.00 | 0.05 | 0.05 | 60 | 1017.3 |
| 20260504140524 | 29 | 288 | 1.6 | 3.2 | 0.00 | 0.05 | 0.05 | 60 | 1017.3 |
| 20260504140403 | 29 | 283 | 1.6 | 3.2 | 0.00 | 0.05 | 0.05 | 60 | 1017.2 |
| 20260504140304 | 29 | 280 | 1.6 | 3.2 | 0.00 | 0.05 | 0.05 | 60 | 1017.2 |
| 20260504140203 | 29 | 273 | 1.6 | 3.2 | 0.00 | 0.05 | 0.05 | 60 | 1017.1 |
| 20260504140103 | 29 | 269 | 1.6 | 3.2 | 0.00 | 0.05 | 0.05 | 60 | 1017.2 |
| 20260504130804 | 29 | 325 | 3.2 | 4.8 | 0.00 | 0.05 | 0.05 | 60 | 1016.5 |
| 20260504130703 | 29 | 325 | 3.2 | 4.8 | 0.00 | 0.05 | 0.05 | 60 | 1016.4 |
| 20260504130603 | 29 | 323 | 4.8 | 4.8 | 0.00 | 0.05 | 0.05 | 60 | 1016.5 |
| 20260504130503 | 29 | 321 | 4.8 | 4.8 | 0.00 | 0.05 | 0.05 | 60 | 1016.4 |
| 20260504130403 | 29 | 322 | 4.8 | 4.8 | 0.00 | 0.05 | 0.05 | 60 | 1016.3 |
| 20260504130325 | 29 | 322 | 4.8 | 4.8 | 0.00 | 0.05 | 0.05 | 60 | 1016.4 |
| 20260504130203 | 29 | 324 | 4.8 | 4.8 | 0.00 | 0.05 | 0.05 | 60 | 1016.4 |
| 20260504130104 | 29 | 324 | 4.8 | 4.8 | 0.00 | 0.05 | 0.05 | 60 | 1016.4 |
| 20260504120203 | 29 | 334 | 6.4 | 9.7 | 0.00 | 0.15 | 0.05 | 60 | 1015.9 |
| 20260504120103 | 29 | 335 | 6.4 | 9.7 | 0.00 | 0.15 | 0.05 | 60 | 1015.9 |
| 20260504110624 | 29 | 2 | 8.0 | 12.9 | 0.00 | 0.20 | 0.05 | 60 | 1015.8 |
| 20260504110503 | 29 | 2 | 9.7 | 12.9 | 0.00 | 0.20 | 0.05 | 60 | 1015.6 |
| 20260504110403 | 29 | 5 | 9.7 | 12.9 | 0.00 | 0.20 | 0.05 | 60 | 1015.8 |
| 20260504110303 | 29 | 4 | 9.7 | 12.9 | 0.00 | 0.20 | 0.05 | 60 | 1015.4 |
| 20260504110224 | 29 | 6 | 9.7 | 14.5 | 0.00 | 0.20 | 0.05 | 60 | 1015.9 |
| 20260504110103 | 29 | 8 | 11.3 | 14.5 | 0.00 | 0.20 | 0.05 | 60 | 1015.8 |
| 20260504100524 | 29 | 358 | 8.0 | 11.3 | 0.00 | 0.20 | 0.05 | 60 | 1016.1 |
| 20260504100403 | 29 | 2 | 8.0 | 11.3 | 0.00 | 0.20 | 0.05 | 60 | 1016.0 |
| 20260504100303 | 29 | 2 | 8.0 | 11.3 | 0.00 | 0.20 | 0.05 | 60 | 1015.9 |
| 20260504100205 | 29 | 2 | 6.4 | 11.3 | 0.00 | 0.20 | 0.05 | 60 | 1015.9 |
| 20260504100103 | 29 | 5 | 6.4 | 11.3 | 0.00 | 0.20 | 0.05 | 60 | 1016.0 |